[[{"header":{"parameterUnit":"m.s-1","parameterCategory":1,"la1":30.6,"la2":29.2853,"lo1":-89.7004,"lo2":-87.6739,"dy":0.0162,"dx":0.0183,"nx":112,"ny":82,"refTime":"2025-11-05T12:00:00:Z","depth":0,"parameterNumber":2,"parameterNumberName":"U-component_of_WINDS"},"data":[0.0,0.0,0.0,0.0,0.0,0.0,0.0,0.0,0.0,0.0,0.0,0.0,0.0,0.0,0.0,0.0,0.0,0.0,0.0,0.0,0.0,0.0,0.0,0.0,0.0,0.0,0.0,0.0,0.0,0.0,0.0,0.0,0.0,0.0,0.0,0.0,0.0,0.0,0.0,0.0,0.0,0.0,0.0,0.0,0.0,0.0,0.0,0.0,0.0,0.0,0.0,0.0,0.0,0.0,0.0,0.0,0.0,0.0,0.0,0.0,0.0,0.0,0.0,0.0,0.0,0.0,0.0,0.0,0.0,0.0,0.0,0.0,0.0,0.0,0.0,0.0,0.0,0.0,0.0,0.0,0.0,0.0,0.0,0.0,0.0,0.0,0.0,0.0,0.0,0.0,0.0,7.8047,8.2578,8.4922,8.3906,8.1953,7.8672,7.3594,0.0,0.0,0.0,0.0,0.0,0.0,0.0,0.0,0.0,0.0,0.0,0.0,0.0,0.0,0.0,0.0,0.0,0.0,0.0,0.0,0.0,0.0,0.0,0.0,0.0,0.0,0.0,0.0,0.0,0.0,0.0,0.0,0.0,0.0,0.0,0.0,0.0,0.0,0.0,0.0,0.0,0.0,0.0,0.0,0.0,0.0,0.0,0.0,0.0,0.0,0.0,0.0,0.0,0.0,0.0,0.0,0.0,0.0,0.0,0.0,0.0,0.0,0.0,0.0,0.0,0.0,0.0,0.0,0.0,0.0,0.0,0.0,0.0,0.0,0.0,0.0,0.0,0.0,0.0,0.0,0.0,0.0,0.0,0.0,0.0,0.0,0.0,0.0,0.0,0.0,0.0,0.0,0.0,0.0,0.0,0.0,0.0,0.0,0.0,0.0,0.0,0.0,0.0,0.0,7.6015,8.2969,8.5781,8.6484,8.4844,8.1719,7.8047,7.3594,0.0,0.0,0.0,0.0,0.0,0.0,0.0,0.0,0.0,0.0,0.0,0.0,0.0,0.0,0.0,0.0,0.0,0.0,0.0,0.0,0.0,0.0,0.0,0.0,0.0,0.0,0.0,0.0,0.0,0.0,0.0,0.0,0.0,0.0,0.0,0.0,0.0,0.0,0.0,0.0,0.0,0.0,0.0,0.0,0.0,0.0,0.0,0.0,0.0,0.0,0.0,0.0,0.0,0.0,0.0,0.0,0.0,0.0,0.0,0.0,0.0,0.0,0.0,0.0,0.0,0.0,0.0,0.0,0.0,0.0,0.0,0.0,0.0,0.0,0.0,0.0,0.0,0.0,0.0,0.0,0.0,0.0,0.0,0.0,0.0,0.0,0.0,0.0,0.0,0.0,0.0,0.0,0.0,0.0,0.0,0.0,0.0,0.0,0.0,0.0,0.0,0.0,0.0,7.539,7.8594,8.4922,8.6719,8.6797,8.5078,8.1719,7.789,7.3594,7.0,0.0,0.0,0.0,0.0,0.0,0.0,0.0,0.0,0.0,0.0,0.0,0.0,0.0,0.0,0.0,0.0,0.0,0.0,0.0,0.0,0.0,0.0,0.0,0.0,0.0,0.0,0.0,0.0,0.0,0.0,0.0,0.0,0.0,0.0,0.0,0.0,0.0,0.0,0.0,0.0,0.0,0.0,0.0,0.0,0.0,0.0,0.0,0.0,0.0,0.0,0.0,0.0,0.0,0.0,0.0,0.0,0.0,0.0,0.0,0.0,0.0,0.0,0.0,0.0,0.0,0.0,0.0,0.0,0.0,0.0,0.0,0.0,0.0,0.0,0.0,0.0,0.0,0.0,0.0,0.0,0.0,0.0,0.0,0.0,0.0,0.0,0.0,0.0,0.0,0.0,0.0,0.0,0.0,0.0,0.0,0.0,0.0,0.0,0.0,0.0,0.0,0.0,7.9609,8.1719,8.6015,8.7109,8.6797,8.5078,8.1328,7.7344,7.3281,6.8594,0.0,0.0,0.0,0.0,0.0,0.0,0.0,0.0,0.0,0.0,0.0,0.0,0.0,0.0,0.0,0.0,0.0,0.0,0.0,0.0,0.0,0.0,0.0,0.0,0.0,0.0,0.0,0.0,0.0,0.0,0.0,0.0,0.0,0.0,0.0,0.0,0.0,0.0,0.0,0.0,0.0,0.0,0.0,0.0,0.0,0.0,0.0,0.0,0.0,0.0,0.0,0.0,0.0,0.0,0.0,0.0,0.0,0.0,0.0,0.0,0.0,0.0,0.0,0.0,0.0,0.0,0.0,0.0,0.0,0.0,0.0,0.0,0.0,0.0,0.0,0.0,0.0,0.0,0.0,0.0,0.0,0.0,0.0,0.0,0.0,0.0,0.0,0.0,0.0,0.0,0.0,0.0,0.0,0.0,0.0,0.0,0.0,0.0,0.0,0.0,0.0,0.0,8.1484,8.5234,8.7187,8.7422,8.6797,8.5078,8.0312,7.5859,7.2344,6.6562,0.0,0.0,0.0,0.0,0.0,0.0,0.0,0.0,0.0,0.0,0.0,0.0,0.0,0.0,0.0,0.0,0.0,0.0,0.0,0.0,0.0,0.0,0.0,0.0,0.0,0.0,0.0,0.0,0.0,0.0,0.0,0.0,0.0,0.0,0.0,0.0,0.0,0.0,0.0,0.0,0.0,0.0,0.0,0.0,0.0,0.0,0.0,0.0,0.0,0.0,0.0,0.0,0.0,0.0,0.0,0.0,0.0,0.0,0.0,0.0,0.0,0.0,0.0,0.0,0.0,0.0,0.0,0.0,0.0,0.0,0.0,0.0,0.0,0.0,0.0,0.0,0.0,0.0,0.0,0.0,0.0,0.0,0.0,0.0,0.0,0.0,0.0,0.0,0.0,0.0,0.0,0.0,0.0,0.0,0.0,0.0,0.0,0.0,0.0,0.0,0.0,0.0,8.0312,8.375,0.0,8.75,8.6797,8.5078,8.0703,7.6328,7.2265,0.0,0.0,0.0,0.0,0.0,0.0,0.0,0.0,0.0,0.0,0.0,0.0,0.0,0.0,0.0,0.0,0.0,0.0,0.0,0.0,0.0,0.0,0.0,0.0,0.0,0.0,0.0,0.0,0.0,0.0,0.0,0.0,0.0,0.0,0.0,0.0,0.0,0.0,0.0,0.0,0.0,0.0,0.0,0.0,0.0,0.0,0.0,0.0,0.0,0.0,0.0,0.0,0.0,0.0,0.0,0.0,0.0,0.0,0.0,0.0,0.0,0.0,0.0,0.0,0.0,0.0,0.0,0.0,0.0,0.0,0.0,0.0,0.0,0.0,0.0,0.0,0.0,0.0,0.0,0.0,0.0,0.0,0.0,0.0,0.0,0.0,0.0,0.0,0.0,0.0,0.0,0.0,0.0,0.0,0.0,0.0,0.0,0.0,0.0,0.0,0.0,0.0,7.6562,8.0156,8.3906,0.0,8.8672,8.8359,8.7422,8.289,7.8047,7.3125,0.0,0.0,0.0,0.0,0.0,0.0,0.0,0.0,0.0,0.0,0.0,0.0,0.0,0.0,0.0,0.0,0.0,0.0,0.0,0.0,0.0,0.0,0.0,0.0,0.0,0.0,0.0,0.0,0.0,0.0,0.0,0.0,0.0,0.0,0.0,0.0,0.0,0.0,0.0,0.0,0.0,0.0,0.0,0.0,0.0,0.0,0.0,0.0,0.0,0.0,0.0,0.0,0.0,0.0,0.0,0.0,0.0,0.0,0.0,0.0,0.0,0.0,0.0,0.0,0.0,0.0,0.0,0.0,0.0,0.0,0.0,0.0,0.0,0.0,0.0,0.0,0.0,0.0,0.0,0.0,0.0,0.0,0.0,0.0,0.0,0.0,0.0,0.0,0.0,0.0,0.0,0.0,0.0,0.0,0.0,0.0,0.0,0.0,0.0,0.0,0.0,0.0,7.6797,8.1797,8.664,9.0937,9.1328,9.164,9.25,8.7031,8.1015,0.0,0.0,0.0,0.0,0.0,0.0,0.0,0.0,0.0,0.0,0.0,0.0,0.0,0.0,0.0,0.0,0.0,0.0,0.0,0.0,0.0,0.0,0.0,0.0,0.0,0.0,0.0,0.0,0.0,0.0,0.0,0.0,0.0,0.0,0.0,0.0,0.0,0.0,0.0,0.0,0.0,0.0,0.0,0.0,0.0,0.0,0.0,0.0,0.0,0.0,0.0,0.0,0.0,0.0,0.0,0.0,0.0,0.0,0.0,0.0,0.0,0.0,0.0,0.0,0.0,0.0,0.0,0.0,0.0,0.0,0.0,0.0,0.0,0.0,0.0,0.0,0.0,0.0,0.0,0.0,0.0,0.0,0.0,0.0,0.0,0.0,0.0,0.0,0.0,0.0,0.0,0.0,0.0,0.0,0.0,0.0,0.0,0.0,0.0,0.0,0.0,0.0,0.0,0.0,8.6875,9.2187,9.4687,9.3906,9.2734,9.1797,8.6719,8.0781,7.4062,0.0,0.0,0.0,0.0,0.0,0.0,0.0,0.0,0.0,0.0,0.0,0.0,0.0,0.0,0.0,0.0,0.0,0.0,0.0,0.0,0.0,0.0,0.0,0.0,0.0,0.0,0.0,0.0,0.0,0.0,0.0,0.0,0.0,0.0,0.0,0.0,0.0,0.0,0.0,0.0,0.0,0.0,0.0,0.0,0.0,0.0,0.0,0.0,0.0,0.0,0.0,0.0,0.0,0.0,0.0,0.0,0.0,0.0,0.0,0.0,0.0,0.0,0.0,0.0,0.0,0.0,0.0,0.0,0.0,0.0,0.0,0.0,0.0,0.0,0.0,0.0,0.0,0.0,0.0,0.0,0.0,0.0,0.0,0.0,0.0,0.0,0.0,0.0,0.0,0.0,0.0,0.0,0.0,0.0,0.0,0.0,0.0,0.0,0.0,0.0,0.0,0.0,8.125,8.8594,9.4453,9.7187,9.6562,9.5625,9.4922,9.0469,8.4453,7.6875,0.0,0.0,0.0,0.0,0.0,0.0,0.0,0.0,0.0,0.0,0.0,0.0,0.0,0.0,0.0,0.0,0.0,0.0,0.0,0.0,0.0,0.0,0.0,0.0,0.0,0.0,0.0,0.0,0.0,0.0,0.0,0.0,0.0,0.0,0.0,0.0,0.0,0.0,0.0,0.0,0.0,0.0,0.0,0.0,0.0,0.0,0.0,0.0,0.0,0.0,0.0,0.0,0.0,0.0,0.0,0.0,0.0,0.0,0.0,0.0,0.0,0.0,0.0,0.0,0.0,0.0,0.0,0.0,0.0,0.0,0.0,0.0,0.0,0.0,0.0,0.0,0.0,0.0,0.0,0.0,0.0,0.0,0.0,0.0,0.0,0.0,0.0,0.0,0.0,0.0,0.0,0.0,0.0,0.0,0.0,0.0,0.0,0.0,0.0,0.0,0.0,0.0,8.1015,8.8515,9.5078,9.9062,9.9375,9.9531,10.0078,9.6328,9.0234,8.164,0.0,0.0,0.0,0.0,0.0,0.0,0.0,0.0,0.0,0.0,0.0,0.0,0.0,0.0,0.0,0.0,0.0,0.0,0.0,0.0,0.0,0.0,0.0,0.0,0.0,0.0,0.0,0.0,0.0,0.0,0.0,0.0,0.0,0.0,0.0,0.0,0.0,0.0,0.0,0.0,0.0,0.0,0.0,0.0,0.0,0.0,0.0,0.0,0.0,0.0,0.0,0.0,0.0,0.0,0.0,0.0,0.0,0.0,0.0,0.0,7.2289,0.0,0.0,0.0,0.0,0.0,0.0,0.0,0.0,0.0,0.0,0.0,0.0,0.0,0.0,0.0,0.0,0.0,0.0,0.0,0.0,0.0,0.0,0.0,0.0,0.0,0.0,0.0,0.0,0.0,0.0,0.0,0.0,0.0,0.0,0.0,0.0,0.0,0.0,0.0,0.0,0.0,8.4609,9.4219,10.1328,10.289,10.1875,10.0625,9.9375,9.5937,9.0469,8.25,0.0,0.0,0.0,0.0,0.0,0.0,0.0,0.0,0.0,0.0,0.0,0.0,0.0,0.0,0.0,0.0,0.0,0.0,0.0,0.0,0.0,0.0,0.0,0.0,0.0,0.0,0.0,0.0,0.0,0.0,0.0,0.0,0.0,0.0,0.0,0.0,0.0,0.0,0.0,0.0,0.0,0.0,0.0,0.0,0.0,0.0,0.0,0.0,0.0,0.0,0.0,0.0,0.0,0.0,0.0,0.0,0.0,0.0,0.0,0.0,0.0,7.3968,0.0,0.0,0.0,0.0,0.0,0.0,0.0,0.0,0.0,0.0,0.0,0.0,0.0,0.0,0.0,0.0,0.0,0.0,0.0,0.0,0.0,0.0,0.0,0.0,0.0,0.0,0.0,0.0,0.0,0.0,0.0,0.0,0.0,0.0,0.0,0.0,0.0,0.0,0.0,0.0,8.6406,9.5859,10.2812,10.4062,10.2969,10.1719,10.039,9.75,9.3125,8.7031,8.1406,0.0,0.0,0.0,0.0,0.0,0.0,0.0,0.0,0.0,0.0,0.0,0.0,0.0,0.0,0.0,0.0,0.0,0.0,0.0,0.0,0.0,0.0,0.0,0.0,0.0,0.0,0.0,0.0,0.0,0.0,0.0,0.0,0.0,0.0,0.0,0.0,0.0,0.0,0.0,0.0,0.0,0.0,0.0,0.0,0.0,0.0,0.0,0.0,0.0,0.0,0.0,0.0,0.0,0.0,0.0,8.7895,8.9116,8.9324,8.863,8.5852,8.2046,7.7678,0.0,0.0,0.0,0.0,0.0,0.0,0.0,0.0,0.0,0.0,0.0,0.0,0.0,0.0,0.0,0.0,0.0,0.0,0.0,0.0,0.0,0.0,0.0,0.0,0.0,8.4453,8.539,0.0,0.0,0.0,0.0,0.0,0.0,0.0,0.0,0.0,0.0,0.0,0.0,8.789,9.6484,10.2812,10.4297,10.3594,10.2812,10.1875,9.9531,9.6406,9.2265,8.6172,8.0781,0.0,0.0,0.0,0.0,0.0,0.0,0.0,0.0,0.0,0.0,0.0,0.0,0.0,0.0,0.0,0.0,0.0,0.0,0.0,0.0,0.0,0.0,0.0,0.0,0.0,0.0,0.0,0.0,0.0,0.0,0.0,0.0,7.1711,6.8901,0.0,0.0,0.0,0.0,0.0,0.0,0.0,0.0,0.0,0.0,0.0,0.0,0.0,0.0,8.3984,9.0955,9.4516,9.4748,10.0837,10.3328,10.2684,10.2102,10.209,10.2508,10.1998,0.0,8.3239,8.5204,0.0,0.0,0.0,0.0,0.0,0.0,0.0,0.0,0.0,0.0,0.0,0.0,0.0,0.0,0.0,0.0,0.0,0.0,0.0,0.0,0.0,0.0,9.1406,9.0859,9.2422,9.3437,0.0,8.289,7.5,7.2578,0.0,0.0,0.0,0.0,0.0,0.0,0.0,0.0,9.1328,9.9531,10.5078,10.5312,10.4531,10.3672,10.2812,10.1015,9.8437,9.4922,9.1719,8.7656,8.2656,7.7422,0.0,0.0,0.0,0.0,0.0,0.0,0.0,0.0,0.0,0.0,0.0,0.0,0.0,0.0,0.0,0.0,0.0,0.0,0.0,0.0,0.0,0.0,0.0,0.0,0.0,0.0,0.0,0.0,0.0,7.0344,7.3228,6.8854,7.1792,7.1923,0.0,0.0,0.0,0.0,0.0,0.0,0.0,0.0,0.0,8.7863,9.0185,9.2838,9.5903,10.0713,10.3329,10.3678,10.7226,10.8925,10.8925,10.8509,10.8418,10.8662,10.8181,10.419,9.7725,9.3227,8.7784,8.2003,0.0,0.0,0.0,0.0,0.0,0.0,0.0,0.0,0.0,0.0,0.0,0.0,0.0,0.0,0.0,0.0,0.0,0.0,0.0,0.0,0.0,9.6328,9.789,9.8594,9.7656,9.2578,8.664,0.0,7.914,7.6328,7.125,0.0,0.0,0.0,0.0,0.0,9.4922,10.1328,10.5703,10.6093,10.539,10.4609,10.3672,10.25,10.0469,9.75,9.539,9.2578,8.8828,8.3672,7.8828,0.0,0.0,0.0,0.0,0.0,0.0,0.0,0.0,0.0,0.0,0.0,0.0,0.0,0.0,0.0,0.0,0.0,0.0,0.0,0.0,0.0,0.0,0.0,0.0,0.0,0.0,0.0,0.0,7.2349,7.5307,6.9983,7.3863,7.4809,0.0,0.0,0.0,0.0,0.0,0.0,8.4877,8.8299,9.2203,9.6598,9.9611,10.2906,10.632,10.8305,10.9535,11.0169,11.0891,11.1492,11.2126,11.2094,11.2113,11.2116,11.1517,11.0663,10.9178,10.0166,9.3828,8.9406,8.6772,0.0,0.0,0.0,8.5078,8.5781,8.9687,9.0703,0.0,8.8906,0.0,8.2812,7.6797,0.0,0.0,0.0,0.0,8.0234,8.7578,0.0,9.6015,10.0312,10.1797,10.2109,10.1406,9.9375,9.5937,0.0,8.7422,8.4219,7.7734,0.0,0.0,0.0,0.0,9.5,9.8906,10.3281,10.6406,10.7031,10.6093,10.5234,10.4609,10.3515,10.2031,9.9765,9.8515,9.664,9.3984,8.9765,8.5625,0.0,0.0,0.0,0.0,0.0,0.0,0.0,0.0,0.0,0.0,0.0,0.0,0.0,0.0,0.0,0.0,0.0,0.0,0.0,0.0,0.0,0.0,0.0,0.0,0.0,0.0,0.0,0.0,0.0,0.0,7.4097,7.9995,0.0,0.0,0.0,0.0,8.1942,8.7797,9.2145,9.4422,10.0098,10.4417,10.6912,10.8725,11.0473,11.2299,11.2376,11.2925,11.3719,11.3796,11.3793,11.3876,11.3909,11.3926,11.3926,11.3772,11.3308,11.1992,10.5871,10.2578,10.101,9.8445,9.7228,9.6557,9.4203,9.3281,9.3359,9.3594,9.2656,9.2031,9.6719,9.3828,8.8125,8.7031,8.3125,0.0,0.0,8.6015,9.0078,9.3828,9.7969,10.1562,10.3515,10.3984,10.4062,10.3984,10.0703,9.7344,0.0,9.4531,0.0,8.9609,0.0,0.0,9.1406,9.4375,9.8125,10.3203,10.6172,10.789,10.789,10.6484,10.5469,10.539,10.3906,10.25,10.1484,10.1406,10.0234,9.7578,9.5703,9.1875,8.6015,7.9844,0.0,0.0,0.0,0.0,0.0,0.0,0.0,0.0,0.0,0.0,0.0,0.0,0.0,0.0,0.0,0.0,0.0,0.0,0.0,0.0,0.0,0.0,0.0,0.0,0.0,0.0,0.0,0.0,7.9311,8.6876,0.0,0.0,8.6835,8.9646,9.2266,9.7345,10.1377,10.3925,10.7065,10.9535,11.0937,11.2601,11.3793,11.4428,11.4379,11.4475,11.4791,11.4322,11.4319,11.478,11.4786,11.5401,11.6399,11.5324,11.5019,11.4866,11.1074,10.7997,10.5474,10.2918,10.163,10.0972,10.032,10.0102,10.0312,10.0469,9.9765,9.8672,9.8281,9.6172,9.3359,9.1406,8.9453,8.8281,8.9844,9.2109,9.5,9.8437,10.1719,10.4375,10.5469,10.5781,10.5781,10.5781,10.4219,10.2578,10.2265,9.8203,9.4297,9.2734,9.4062,9.5312,9.5156,9.8281,10.1719,10.4687,10.6328,10.7187,10.7187,10.6172,10.5312,10.4687,10.2578,10.039,9.8437,9.8828,9.8203,9.6172,9.5547,9.3437,8.9531,8.4687,7.7812,0.0,0.0,0.0,0.0,0.0,0.0,0.0,0.0,0.0,0.0,0.0,0.0,0.0,0.0,0.0,0.0,0.0,0.0,0.0,0.0,0.0,0.0,0.0,0.0,0.0,0.0,8.7369,8.5552,9.2186,9.5758,9.3141,9.579,9.8889,10.1815,10.5517,10.8426,11.0062,11.1789,11.303,11.3634,11.4678,11.5316,11.5313,11.5033,11.4896,11.4896,11.4269,11.4267,11.4885,11.5412,11.6333,11.733,11.6182,11.6028,11.6336,11.3483,11.1013,10.878,10.6882,10.5613,10.4896,10.5086,10.4919,10.4609,10.4609,10.4297,10.3281,10.039,9.8906,9.7812,9.5469,9.4922,9.539,9.625,9.7734,9.9765,10.2578,10.4609,10.6093,10.6875,10.6875,10.6719,10.6719,10.6093,10.5469,10.5469,10.1797,9.8515,9.789,9.9687,10.0469,9.8515,10.1406,10.3906,10.4062,10.539,10.6328,10.6328,10.5312,10.4219,10.2969,10.0,9.7422,9.5703,9.5,9.4297,9.3515,9.2656,9.1094,8.875,8.4219,7.8515,7.164,0.0,0.0,0.0,0.0,0.0,0.0,0.0,0.0,0.0,0.0,0.0,0.0,0.0,0.0,0.0,0.0,0.0,0.0,0.0,0.0,0.0,0.0,0.0,8.2911,8.7993,9.1963,9.2795,9.5855,9.9248,10.2635,10.2864,10.502,11.0027,11.1934,11.2769,11.2769,11.4382,11.5302,11.5302,11.5335,11.527,11.5333,11.4409,11.4022,11.4102,11.4022,11.4022,11.4099,11.5717,11.6492,11.6567,11.6492,11.649,11.6336,11.3019,11.1629,11.148,11.0838,10.9699,10.8537,10.8537,10.7569,10.6327,10.5702,10.5468,10.5234,10.3515,10.2422,10.1406,9.9687,9.9765,10.0625,10.1406,10.289,10.4609,10.6328,10.6719,10.7031,10.7812,10.7265,10.6719,10.6719,10.6093,10.5469,10.5469,10.5469,10.5469,10.5469,10.5469,10.4687,10.2109,10.3906,0.0,10.2031,10.3906,10.539,10.5312,10.3828,10.2109,10.0312,9.625,9.375,9.375,9.0547,8.9062,8.9922,8.7656,8.5547,8.3906,7.8828,7.6172,7.6094,0.0,0.0,0.0,0.0,0.0,0.0,0.0,0.0,0.0,0.0,0.0,0.0,0.0,0.0,0.0,0.0,0.0,0.0,0.0,0.0,0.0,0.0,8.8924,8.6589,9.2343,9.7097,9.7962,10.3685,10.8016,10.9018,11.0172,11.1714,11.3717,11.4871,11.5484,11.5484,11.5866,11.5866,11.5324,11.4717,11.4874,11.6185,11.4099,11.4022,11.5797,11.3868,11.3712,11.5028,11.5412,11.6564,11.8333,11.7025,11.7182,11.8179,11.6025,11.4407,11.3019,11.0419,10.9114,10.8808,10.8975,10.8574,10.7831,10.697,10.6266,10.5607,10.4833,10.4297,10.3984,10.2969,10.289,10.3203,10.3437,10.4297,10.539,10.6406,10.7187,10.7734,10.789,10.7265,10.6719,10.6719,10.6093,10.5469,10.5469,10.5469,10.5703,10.6328,10.6406,10.6093,10.539,0.0,0.0,10.3672,10.4062,10.3828,10.1875,10.0703,9.9375,9.7656,9.3594,9.0781,0.0,8.8672,8.8515,8.9922,8.9922,9.0,9.0156,8.5078,8.1797,0.0,0.0,0.0,0.0,0.0,0.0,0.0,0.0,0.0,0.0,0.0,0.0,0.0,0.0,0.0,0.0,0.0,0.0,0.0,0.0,0.0,0.0,9.2817,9.6837,9.567,9.8659,10.1868,10.4564,10.8482,11.1788,11.3863,11.4714,11.5717,11.7333,11.7487,11.7567,11.7567,11.7567,11.7413,11.6872,11.6022,11.5869,11.6492,11.4717,11.433,11.541,11.4022,11.3791,11.4794,11.5489,11.6567,0.0,11.6874,11.7105,11.7872,11.6182,11.4871,0.0,0.0,0.0,0.0,0.0,10.9101,10.8687,10.8,10.7378,10.6822,10.5784,10.5214,10.4787,10.4215,10.3984,10.4062,10.4609,10.539,10.6093,10.6562,10.7109,10.7422,10.7031,10.6562,10.6406,10.7109,10.6328,10.5703,10.6406,0.0,0.0,10.6093,10.6172,10.5703,10.4219,10.4609,0.0,0.0,10.2969,10.3125,10.1562,10.0312,9.875,9.664,9.25,0.0,0.0,0.0,8.6875,8.7812,0.0,0.0,0.0,0.0,0.0,0.0,0.0,0.0,0.0,8.4844,8.3203,0.0,0.0,0.0,0.0,0.0,0.0,0.0,0.0,0.0,0.0,0.0,0.0,0.0,0.0,0.0,0.0,10.0409,10.502,10.6782,10.579,10.6405,11.0785,11.1101,11.2717,11.7174,11.71,11.7718,12.0026,11.9564,11.9177,11.91,0.0,0.0,0.0,0.0,11.7176,11.6492,11.5566,11.4871,11.4404,11.4176,11.4176,11.433,11.5797,11.6569,11.6567,11.649,11.6569,11.649,11.4871,11.4176,11.4099,11.4019,11.2637,11.0562,10.9931,10.9615,0.0,0.0,0.0,0.0,10.6633,10.5499,10.4812,10.407,10.3822,10.4062,10.5078,10.5937,10.6484,10.6797,10.6719,10.6484,10.6015,10.5703,10.5937,10.75,10.6562,10.5937,10.7422,10.6484,10.5469,10.5469,10.5469,10.4531,10.1406,10.2812,0.0,10.0,10.1484,10.2812,10.25,0.0,0.0,9.6562,9.2578,8.9844,8.9062,8.7187,8.6094,8.6172,8.7422,8.8437,8.9219,9.0,9.3437,9.9609,9.9765,10.1484,10.4297,9.1094,8.8047,0.0,0.0,0.0,0.0,0.0,0.0,0.0,0.0,0.0,0.0,0.0,0.0,0.0,0.0,0.0,9.7326,10.3099,10.8018,11.1096,11.0631,11.0093,11.0406,11.3335,11.5723,11.672,11.7872,11.8792,11.9331,11.9795,11.9795,11.9097,11.91,0.0,11.7025,11.6179,11.6025,11.6492,11.5025,11.5176,11.7017,0.0,0.0,11.6028,11.6415,11.6872,11.7481,11.6797,11.6872,11.7481,11.641,11.5564,11.5028,11.4333,11.3717,11.3178,11.2324,11.1629,11.1016,11.0186,10.9583,10.8978,10.7421,10.7015,10.6662,10.4713,10.4063,0.0,10.4375,10.4609,10.5234,0.0,10.6719,10.6172,10.8125,10.7031,10.5781,10.6719,10.6172,10.5625,10.5937,10.5703,10.5469,10.5469,10.5469,10.5312,10.4609,10.4297,10.3984,10.3281,10.2969,10.2109,10.0,9.8828,9.7422,9.5625,9.2734,9.1015,9.0781,9.2344,9.3515,9.4219,9.7734,9.9765,9.9922,10.0781,10.1875,10.3203,10.4609,10.5937,10.7187,10.2969,10.0625,0.0,0.0,0.0,0.0,0.0,0.0,0.0,0.0,0.0,0.0,0.0,8.4243,8.8553,0.0,9.8562,10.3717,10.7713,11.1096,11.3635,11.4022,11.3791,11.3412,11.5182,11.7028,11.8336,11.918,11.9872,12.0334,12.0719,12.0798,12.0414,12.0414,11.9798,11.841,11.8026,11.7564,11.7179,11.6327,11.6327,11.71,11.6336,11.6567,11.7798,11.6874,11.7179,11.8405,11.7105,11.6718,11.71,11.672,11.6339,11.5877,11.541,11.4714,11.3868,11.3016,11.2398,11.1862,11.0562,11.0032,10.9578,10.8416,10.8272,10.8223,10.6278,10.5502,10.5236,10.4907,10.5078,10.5703,10.6484,10.6719,10.6875,10.7265,10.6406,10.5781,10.7109,10.6406,10.5703,10.6562,10.6093,10.5469,10.5469,10.5469,10.5469,10.5469,10.4765,10.4219,10.4219,10.3437,10.2422,10.1094,10.0234,9.914,9.789,9.5781,9.4687,9.5156,9.6406,9.75,9.8359,10.1719,10.3828,10.4219,10.5937,10.7187,10.8125,10.8906,11.0,11.1172,10.9531,10.75,0.0,0.0,0.0,0.0,0.0,0.0,0.0,0.0,8.4555,8.6177,8.8632,9.2246,9.7709,10.0712,10.4335,11.018,11.2486,11.4019,11.5794,11.6567,11.6872,11.6797,11.7028,11.8028,12.0103,12.0491,12.0795,12.1491,12.1799,12.1876,12.1876,12.1876,12.1414,12.0331,12.01,11.9331,11.7638,11.7481,11.7176,11.6492,11.6492,11.7182,11.8564,11.7333,11.7487,11.8792,11.741,11.672,11.6492,11.6492,11.6492,11.6492,11.6492,11.572,11.4409,11.3481,11.3096,11.2709,11.1175,11.0562,11.0332,10.909,10.9029,10.8887,10.7277,10.653,10.5999,10.5586,10.6015,10.6406,10.6093,10.6719,10.7265,10.6406,10.6015,10.6093,10.7734,10.6875,10.6406,10.7734,10.6875,10.6015,10.6172,10.6406,10.6328,10.5781,10.5,10.4531,10.4687,10.3828,10.3203,10.3437,10.2265,10.1328,10.0625,9.9609,9.9297,10.0,10.0312,10.0781,10.1484,10.3672,10.539,10.6484,10.8515,11.039,11.2187,11.2265,11.2968,11.3984,11.2734,11.1172,7.0085,7.0853,7.4395,7.6172,7.894,8.2787,0.0,0.0,9.5095,9.6713,10.202,10.6636,10.7326,10.9018,11.1173,11.4179,11.5489,11.672,11.8407,11.8795,11.8484,11.7709,11.9023,12.0026,12.0334,12.1029,12.1494,12.1568,12.2331,12.279,12.279,12.279,12.2024,12.0411,11.9564,11.8407,11.672,11.6567,11.6567,11.6492,11.6492,11.6567,11.6797,11.7407,11.7789,11.7863,11.7709,11.7176,11.6492,11.6492,11.6492,11.6492,11.6492,11.6415,11.6105,11.5335,11.4486,11.3712,11.2788,11.2099,11.1329,10.8902,10.8295,10.8215,10.5987,10.5301,10.5297,10.539,10.5625,10.6015,10.7422,10.6797,10.6328,10.8437,10.7734,10.6797,10.7812,10.789,10.7812,10.7969,10.7812,10.7969,10.8672,10.9531,10.9218,10.6875,10.5937,10.5625,10.6328,10.5,10.4375,10.5078,10.2969,10.1562,10.1484,10.2734,10.3515,10.3594,10.5,10.5937,10.6015,10.7031,10.8281,11.0,11.0312,11.1328,11.3125,11.3828,11.3515,11.2187,11.2812,11.2109,7.7015,7.7476,7.9939,0.0,9.0178,9.3946,9.894,10.1476,10.3402,10.51,10.8098,11.0401,11.0401,11.2173,11.4102,0.0,11.641,11.7715,11.8869,11.91,11.9023,11.8638,11.9564,12.01,11.9562,12.1331,12.2411,12.2411,12.3098,12.3636,12.3636,12.3636,12.2793,12.1103,12.0177,11.9026,11.733,11.6797,11.6492,11.6492,11.6492,11.7339,11.8721,11.81,11.7786,11.7786,11.7786,11.733,11.649,11.7023,11.7025,11.6569,11.7102,11.6872,11.6415,11.5566,11.5105,11.4486,11.2632,11.1865,11.1324,10.9233,10.8785,10.873,10.6663,10.6225,10.6262,10.6477,10.6486,10.7009,10.9371,10.9062,10.8672,11.039,10.9922,10.8906,10.8828,10.8828,10.8828,10.8828,10.8828,10.8984,10.9922,11.039,11.0234,10.9062,10.8281,10.75,10.6797,10.5703,10.5078,10.5469,10.4531,10.4062,10.4531,10.5703,10.6406,10.6406,10.7109,10.7734,10.8203,10.8593,10.9297,11.0625,11.2109,11.2734,11.2422,11.3828,11.4062,11.3437,11.2734,11.2109,8.1246,8.3555,0.0,9.4564,9.9642,10.3794,10.7323,10.8785,10.979,11.1024,11.2099,11.2788,11.2634,11.4176,11.572,11.6025,11.7176,11.8405,11.9023,11.91,11.8792,11.81,11.8795,11.9026,11.8407,12.0869,12.2636,12.2864,12.3636,12.4175,12.4406,12.4486,12.3793,12.2334,12.118,12.0026,11.8482,11.7561,11.7182,11.7182,11.7182,11.8179,11.9869,11.8866,11.8482,11.8482,11.8482,11.8023,11.7336,11.7866,11.7792,11.7336,11.7866,11.7638,11.6797,11.6179,11.5717,11.5025,11.3173,11.2093,11.1324,10.9713,10.9108,10.8729,10.7231,10.6897,10.721,10.7467,10.7701,10.839,11.0431,11.0709,11.0602,11.1327,11.0937,11.0312,10.9765,10.9687,10.9687,10.9687,10.9687,10.9922,11.0781,11.1172,11.1172,11.1015,11.0625,10.9687,10.7969,10.75,10.7109,10.6562,10.7187,10.7812,10.8125,10.9218,10.9609,10.9062,10.9297,10.9609,11.0,10.9765,11.0234,11.1328,11.3203,11.3515,11.2265,11.3984,11.4531,11.3828,11.2734,11.1875,8.0319,0.0,9.748,9.9488,10.5028,11.0411,11.2093,11.3173,11.3791,11.3868,11.5179,11.6105,11.5333,11.5874,11.6718,11.7635,11.8484,11.91,11.91,11.91,11.8179,11.5717,11.6105,11.6567,0.0,11.9567,12.2026,12.2787,12.3636,12.4486,12.5332,12.5412,12.487,12.4101,12.2411,12.1103,12.0177,11.9408,11.9023,11.9023,11.9023,11.9103,11.9177,11.9872,12.0177,12.0177,12.0177,11.9795,11.9023,11.9023,11.9023,11.9023,11.9103,11.8482,11.7789,11.7709,11.6715,11.5335,11.5179,11.3637,11.1401,11.0488,10.9101,10.7636,10.7023,10.6818,10.6995,10.8134,10.8968,10.9609,10.9712,11.0434,11.0891,11.038,11.0234,11.0312,11.0468,11.0625,11.0625,11.0625,11.0625,11.0781,11.1718,11.2578,11.2812,11.2031,11.2578,11.25,11.0703,11.1172,11.1093,10.9375,11.1484,11.2578,11.1797,11.3281,11.3593,11.1875,11.2578,11.2734,11.1875,11.1015,11.1406,11.3125,11.3203,11.3203,11.3203,11.4922,11.4531,11.2031,11.2812,11.1797,9.1253,9.825,10.4479,10.9024,11.2717,11.5789,11.8103,11.7105,11.5794,11.6404,11.3407,11.0406,10.9637,11.0098,11.0868,11.1791,11.5484,11.8171,11.8171,11.9177,11.8795,11.572,11.7025,0.0,0.0,0.0,0.0,12.2026,12.3873,12.4793,12.4562,12.5563,12.5566,12.4095,12.3021,12.1793,12.0334,11.9485,11.91,11.91,11.9562,11.9872,11.9869,12.0798,12.0795,12.0334,12.0334,11.9792,11.9097,11.9715,11.9564,11.9177,11.9715,11.902,11.7786,11.7786,11.6712,11.5105,11.4022,11.3016,11.1862,10.9406,10.8177,10.7713,10.7482,10.7405,10.7787,10.9936,10.991,10.9735,11.217,11.1927,11.1265,11.247,11.2397,11.2109,11.1562,11.1484,11.1484,11.1484,11.1484,11.1718,11.2578,11.2968,11.3125,11.2812,11.2031,11.1328,11.0703,11.0937,11.0781,11.0234,11.1484,11.25,11.2734,11.4375,11.4922,11.3672,11.3906,11.3906,11.3593,11.2187,11.2031,11.3203,11.3828,11.3515,11.2265,11.4062,11.4218,11.2812,11.3125,11.2422,9.9945,10.6326,11.1634,11.641,11.8792,12.0171,12.1029,11.9183,11.7179,11.6635,11.1329,10.6482,10.571,10.471,10.4864,10.7636,11.2019,11.5638,11.7097,11.9023,11.9334,11.6484,11.7638,11.81,0.0,0.0,0.0,12.1106,12.3488,12.4716,12.4098,12.58,12.6184,12.5101,12.3867,12.279,12.1719,12.0565,12.0026,12.0026,12.0488,12.0798,12.0798,12.1337,12.1337,12.0798,12.0798,12.0491,12.0026,12.0565,12.0491,12.0026,12.0565,11.9869,11.8635,11.8017,11.6869,11.5489,11.4099,11.3173,11.2324,10.9865,10.8788,10.8482,10.8172,10.8095,10.848,11.0483,11.0483,11.0403,11.2868,11.2736,11.2064,11.3304,11.3293,11.29,11.2495,11.2422,11.2422,11.2422,11.2422,11.25,11.3125,11.3203,11.3203,11.3203,11.2187,11.1484,11.1484,11.1797,11.2031,11.2031,11.2812,11.3515,11.4062,11.5078,11.539,11.4609,11.4531,11.4531,11.4531,11.3125,11.2812,11.3593,11.4218,11.3828,11.2422,11.3828,11.4062,11.3203,11.3203,11.2734,10.6092,11.2481,11.8712,12.1183,12.2873,12.3405,12.0869,11.9564,11.7869,11.4484,10.887,10.4333,0.0,0.0,9.9324,10.5167,10.8636,11.1873,11.5874,11.8798,11.9872,0.0,0.0,0.0,0.0,0.0,0.0,12.0411,0.0,12.4098,12.4098,12.5797,12.6723,12.6723,12.5101,12.4095,12.4098,12.2411,12.1568,12.1568,12.1568,12.1568,12.1568,12.1568,12.1568,12.1568,12.1568,12.1568,12.1568,12.1568,12.1568,12.1491,12.1568,12.1029,12.0026,11.8405,11.7176,11.6339,11.541,11.4102,11.2632,11.1708,11.0868,11.0024,10.9175,10.9024,10.9098,11.0024,11.0868,11.1634,11.1793,11.2513,11.3084,11.2818,11.2716,11.2801,11.3093,11.3203,11.3203,11.3203,11.3203,11.3203,11.3203,11.3203,11.3203,11.3203,11.3203,11.3203,11.3203,11.3906,11.4531,11.4531,11.5234,11.5703,11.5781,11.5781,11.5468,11.4687,11.4687,11.4687,11.4609,11.3828,11.3828,11.4531,11.4531,11.4062,11.3281,11.4062,11.3984,11.3203,11.3203,11.2812,11.4635,11.9097,12.2098,12.4027,12.379,12.2867,12.1568,11.8721,11.5333,11.1873,10.341,9.6944,0.0,0.0,0.0,10.271,10.987,0.0,11.6336,12.0331,0.0,11.9869,0.0,12.21,12.1106,12.1485,0.0,0.0,12.3405,12.4098,12.4098,12.6326,12.7332,12.6723,12.5563,12.4793,12.4098,12.2411,12.1568,12.1568,12.1568,12.1568,12.1568,12.1568,12.1568,12.1568,12.1568,12.1568,12.1568,12.1568,12.1183,12.0719,12.1337,12.0334,11.8405,11.802,11.6484,11.4486,11.3714,11.3096,11.2481,11.1021,11.0411,11.0183,10.987,10.9873,11.0103,11.0865,11.1324,11.1475,11.1634,11.1876,11.228,11.2406,11.2564,11.2816,11.3122,11.3203,11.3203,11.3203,11.3203,11.3203,11.3203,11.3203,11.3203,11.3203,11.3203,11.3203,11.3203,11.3437,11.3828,11.4375,11.4687,11.5312,11.6562,11.7265,11.75,11.7265,11.789,11.7734,11.6406,11.6093,11.5781,11.539,11.4765,11.4375,11.4218,11.3672,11.3437,11.3203,11.3203,11.3125,12.1334,12.4409,12.5867,12.6791,12.5175,12.2098,11.7182,11.3335,10.8795,10.1717,9.4097,0.0,9.1477,9.0789,9.264,0.0,0.0,0.0,11.7182,12.1408,12.3562,0.0,12.3562,0.0,12.3876,12.387,12.4486,0.0,12.5409,12.5178,12.5178,12.7329,12.8099,12.7332,12.6024,12.4565,12.3024,12.2106,12.1568,12.1568,12.1568,12.1568,12.1568,12.1568,12.1568,12.1568,0.0,12.1568,12.1568,12.1183,12.0719,12.0331,12.0795,11.9869,11.8328,11.7484,11.6102,11.433,11.2709,11.217,11.2016,11.1098,11.1021,11.1175,11.0868,11.0791,11.0868,11.1401,11.1785,11.2093,11.217,11.2634,11.2965,11.2906,11.2993,11.3125,11.2968,11.2968,11.2968,11.3203,11.3203,11.3203,11.3203,11.3203,11.3281,11.3672,11.3437,11.3515,11.4218,11.3984,11.3984,11.4375,11.4765,11.539,11.6328,11.6875,11.7265,11.7734,11.8203,11.7968,11.7031,11.7031,11.6562,11.5703,11.5312,11.5078,11.5,11.4531,11.4297,11.4297,11.3906,11.3828,12.6104,12.7871,12.8871,12.8871,12.6098,12.0869,11.1021,10.6331,10.087,8.9404,0.0,8.2633,8.5861,8.5249,8.8175,10.0168,0.0,11.1019,11.8177,12.2177,12.4406,12.4713,12.5483,12.6489,12.7415,12.672,12.7181,12.941,12.8182,12.7264,12.7028,12.8486,12.8868,12.7788,12.6101,12.4104,12.1568,12.1568,12.1568,12.1568,12.1722,12.1799,12.1799,12.1876,12.1876,12.1799,0.0,0.0,12.1491,12.0798,12.0411,12.0334,12.0411,11.9872,11.8869,11.7336,11.6182,11.5105,11.2711,11.1785,11.1785,11.1632,11.2093,11.2709,11.1939,11.1785,11.2016,11.1862,11.2324,11.3019,11.3401,11.3876,11.4203,11.3763,11.3691,11.3485,11.2782,11.2571,11.2812,11.3437,11.3437,11.3281,11.3515,11.3515,11.3828,11.4609,11.3984,11.4062,11.5468,11.5,11.4609,11.4765,11.539,11.5937,11.6406,11.6172,11.6484,11.7578,11.7812,11.7734,11.7422,11.7578,11.7187,11.6093,11.6015,11.5937,11.5937,11.5781,11.5703,11.5781,11.5,11.4687,12.8022,12.8028,12.7105,12.7105,12.3485,11.7789,10.979,10.3174,0.0,0.0,8.1477,8.025,8.7021,8.8023,9.1945,10.4479,11.0096,11.4561,11.9408,12.3024,12.6024,0.0,12.9102,13.0182,13.1804,0.0,0.0,0.0,0.0,0.0,12.8791,12.9717,12.9179,12.7028,12.5178,12.3408,12.1568,12.1568,12.1568,12.1568,12.2331,12.2713,12.2713,12.3408,12.3329,12.2713,0.0,0.0,12.1568,12.1414,12.0872,12.0411,12.1106,12.0411,11.9023,11.8023,11.7023,11.6028,11.4176,11.3637,11.3327,11.2019,11.2478,11.3635,11.2788,11.3483,11.4486,11.3791,11.3714,11.4025,11.4714,11.4486,11.411,11.4203,11.4283,11.392,11.2579,11.2392,11.289,11.4609,11.4218,11.3906,11.5078,11.5078,11.5078,11.5468,11.539,11.539,11.5703,11.5,11.5,11.6406,11.6015,11.6875,11.9765,11.8672,11.8828,12.1172,12.2031,12.1406,11.9218,12.0468,12.0234,11.789,11.7187,11.6797,11.6797,11.6093,11.5703,11.5703,11.5625,11.5468,12.933,12.8563,12.7178,12.68,12.2183,11.4794,10.3561,0.0,0.0,7.74,7.4091,7.5014,8.0402,8.3249,8.7865,9.7555,10.2325,10.7482,11.533,11.8872,12.2719,12.7865,13.0102,13.1567,0.0,13.3029,0.0,0.0,0.0,0.0,13.0564,13.049,12.9336,12.6803,12.5409,12.3796,12.1568,12.1568,12.1568,12.1568,12.2485,12.2864,12.2864,12.371,12.3867,12.3482,0.0,0.0,0.0,12.1334,12.0719,12.0331,12.0798,12.018,11.9023,11.8635,11.7561,11.6336,11.5105,11.4409,11.3868,11.3099,11.3327,11.3868,11.3483,11.4025,11.4486,11.4099,11.433,11.4794,11.5182,11.5335,11.5184,11.4888,11.4613,11.4172,11.3538,11.3474,11.3883,11.4929,11.4669,11.4508,11.5161,11.5293,11.5468,11.6093,11.5937,11.6015,11.6875,11.6718,11.6797,11.7578,11.8125,11.9297,12.1406,12.1172,12.1718,12.3437,12.3906,12.3203,12.1015,12.1797,12.1015,11.8437,11.789,11.7734,11.7734,11.7265,11.7109,11.7031,11.6562,11.6406,12.9105,12.8791,12.748,12.603,12.0721,11.2181,9.7949,9.0483,8.2787,6.9246,6.8013,7.0549,7.4318,7.8015,8.3016,9.0554,9.417,9.994,11.1093,11.4714,11.918,12.7172,13.0333,0.0,13.3725,13.4568,0.0,0.0,0.0,0.0,0.0,13.0798,12.9333,12.7335,12.6024,12.4412,12.2414,12.2183,12.2103,12.2103,12.3021,12.3402,12.3482,12.4332,12.4562,12.4329,0.0,0.0,0.0,12.1177,12.0565,12.0565,12.0565,12.018,11.9564,11.9177,11.8179,11.6874,11.5874,11.5105,11.4484,11.4484,11.4484,11.4484,11.4484,11.4714,11.4791,11.4791,11.5179,11.5566,11.5794,11.6182,11.6339,11.5731,11.4915,11.4403,11.478,11.48,11.4766,11.5316,11.5209,11.5124,11.538,11.5597,11.5887,11.6718,11.6406,11.6718,11.8281,11.8672,11.8984,11.9375,12.0468,12.1718,12.289,12.3281,12.3984,12.5312,12.5234,12.4218,12.2265,12.2734,12.1562,11.8593,11.8828,11.8672,11.8281,11.8281,11.8281,11.8281,11.7578,11.7265,12.5873,12.7486,12.7021,12.3027,11.8103,11.0637,9.6946,0.0,8.0943,7.0316,6.8391,7.0008,7.4936,7.748,8.1945,9.1866,9.441,9.9255,11.1016,11.4333,11.8795,12.8022,13.0564,13.3032,13.6106,13.7187,0.0,0.0,0.0,0.0,0.0,13.0179,12.9176,12.9022,12.6563,12.5335,12.5104,12.4332,12.387,12.3867,12.4793,12.5181,12.5178,12.6107,12.6027,12.5178,0.0,0.0,0.0,12.1873,12.1494,12.1494,12.1494,12.1414,12.1183,11.9718,11.9023,11.8561,11.7028,11.6336,11.6339,11.6339,11.6339,11.6339,11.6339,11.6792,11.7481,11.7481,11.6869,11.6567,11.7404,11.7023,11.6492,11.6415,11.5215,11.4467,11.5968,11.5069,11.4588,11.6501,11.6037,11.5712,11.6924,11.6988,11.701,11.7329,11.75,11.7968,11.8984,12.0,12.1328,12.289,12.25,12.2968,12.539,12.4297,12.4531,12.6875,12.6328,12.4765,12.2265,12.4375,12.3672,11.9609,12.0312,11.9922,11.8281,11.8281,11.8281,11.8281,11.8203,11.8203,12.503,12.6874,12.6335,12.2491,11.8182,11.1024,9.6329,8.8865,8.1939,7.0701,6.8854,6.9779,7.186,7.3554,7.6557,8.2172,8.3789,8.9021,10.2404,10.6331,11.2332,12.4713,12.8483,13.1718,0.0,0.0,0.0,0.0,0.0,0.0,0.0,13.1872,13.0176,12.9173,12.7714,12.6406,12.5412,12.4483,12.4098,12.4098,12.5024,12.5412,12.5412,12.6338,12.6181,0.0,0.0,0.0,0.0,12.2029,12.1568,12.1568,12.1568,12.1568,12.1568,12.1405,12.1103,12.0565,12.0408,12.0026,11.949,11.9029,11.9103,11.9185,11.7105,11.7487,11.8407,11.733,11.71,11.7176,11.7102,11.6797,11.6492,11.6492,11.5965,11.5665,11.6421,11.6014,11.5698,11.6492,11.6809,11.6968,11.7521,11.8079,11.8466,11.857,11.8893,11.9321,11.9604,12.0468,12.1562,12.2968,12.4375,12.5937,12.7422,12.789,12.8125,12.8125,12.7812,12.6172,12.3125,12.3984,12.3203,12.039,12.0703,12.0625,11.9922,11.9922,11.9609,11.9062,11.9609,11.9609,12.2106,12.4799,12.4415,12.1337,11.6487,10.9098,9.5559,8.8246,8.1319,7.0933,6.9241,6.9704,6.9704,7.086,7.2633,7.5168,7.7632,8.3251,9.4944,9.9786,10.6403,11.7479,12.2793,12.7332,0.0,0.0,0.0,0.0,0.0,0.0,0.0,13.3564,13.1872,13.0714,12.9406,12.8099,12.6871,12.5566,12.487,12.487,12.5489,12.5797,12.5797,12.6415,12.6181,0.0,0.0,0.0,0.0,12.1719,12.1183,12.1183,12.1029,12.0875,12.1029,12.179,12.1716,12.1334,12.2177,12.187,12.1103,12.0488,12.0875,12.1109,11.8103,11.8103,11.8869,11.7875,11.7487,11.733,11.7025,11.6872,11.6872,11.7182,11.7273,11.7284,11.7284,11.7284,11.7284,11.7284,11.7837,11.8225,11.8194,11.8903,11.9379,11.9379,11.9696,12.0014,12.0621,12.1397,12.2414,12.3509,12.6381,12.8515,12.8906,13.0312,13.0703,12.9375,12.9062,12.7578,12.4375,12.4531,12.3593,12.1328,12.1484,12.1406,12.0937,12.0937,12.0625,12.0,12.0625,12.0625,11.6176,12.0411,12.1029,11.8482,11.2093,10.4015,9.4636,8.594,7.7932,7.1089,6.9704,6.9704,6.9704,7.0398,7.1781,7.4317,7.971,8.5328,9.0554,9.7091,10.2628,10.6169,11.2483,11.9032,12.4873,0.0,0.0,0.0,0.0,0.0,0.0,0.0,13.4334,13.4177,13.1795,13.049,13.041,12.7874,12.6723,12.6723,12.6723,12.6723,12.6723,12.6723,0.0,0.0,0.0,0.0,0.0,12.1023,12.0334,12.0177,11.9408,11.91,11.9177,12.0023,12.0334,12.0411,12.1337,12.1029,12.0334,12.0334,12.0875,12.1337,11.9564,11.91,11.9331,12.0023,11.849,11.672,11.7635,11.7786,11.802,11.8869,11.9068,11.9108,11.9108,11.9108,11.9108,11.9108,11.9108,11.9077,11.9128,11.911,11.911,11.911,11.927,12.0071,12.1919,12.3111,12.4064,12.5015,12.8393,13.0468,12.9922,13.0703,13.1172,13.1172,13.039,12.8672,12.6093,12.6797,12.5703,12.2265,12.2968,12.2578,12.0937,12.0937,12.0937,12.0937,12.0937,12.0937,10.3328,10.6869,10.7636,10.3323,10.0404,9.6175,8.6865,8.2631,7.8784,7.1935,7.055,7.055,7.055,7.0706,7.3476,8.1244,8.363,8.7248,9.5251,9.9712,10.3169,10.6092,11.7481,12.7714,0.0,0.0,0.0,0.0,0.0,0.0,0.0,0.0,13.6106,13.4407,13.2875,13.1724,13.049,12.9102,12.7794,12.6723,12.6723,12.6723,12.6723,12.6723,0.0,0.0,0.0,0.0,0.0,12.1414,12.0488,11.9485,11.9792,12.0334,12.0872,12.1793,12.2793,12.3873,12.4799,12.4876,12.4492,12.3332,12.3485,12.3873,12.2174,12.0869,11.9872,11.9564,11.8026,11.7028,11.9026,11.8695,11.7986,11.8929,11.9086,11.908,11.908,11.908,11.9396,12.0588,12.1301,12.1685,12.173,12.2204,12.252,12.252,12.26,12.3313,12.4977,12.5629,12.6217,12.7171,12.8965,12.9876,12.9606,13.1718,13.25,13.1328,13.039,12.8984,12.7031,12.6093,12.5078,12.3984,12.3672,12.3515,12.3593,12.2968,12.2734,12.2734,12.2109,12.2109,9.4174,9.7788,9.8481,9.5324,9.2864,8.9483,8.3018,7.9862,7.6859,7.1937,7.0937,7.0937,7.0937,7.0937,7.3168,8.0242,8.4395,8.8246,9.2484,9.8327,10.371,10.7782,0.0,0.0,0.0,0.0,0.0,0.0,0.0,0.0,0.0,0.0,13.8492,13.6331,13.4411,13.3029,13.1868,13.0099,12.8717,12.7566,12.7031,12.6723,12.6723,0.0,0.0,0.0,0.0,0.0,0.0,12.218,12.1488,12.0562,12.0719,12.1103,12.1722,12.2867,12.4021,12.5101,12.6338,12.6492,12.603,12.4562,12.4024,12.3719,12.2328,12.1408,12.0565,11.9408,11.8333,11.7872,11.9795,11.9467,11.8994,11.9778,12.0533,12.0823,12.0213,12.1062,12.2065,12.2538,12.3538,12.4305,12.4305,12.4687,12.5134,12.5134,12.5069,12.5575,12.7002,12.7418,12.7775,12.8172,12.9736,13.0262,12.9573,13.1988,13.2968,13.1797,13.1172,13.0078,12.8437,12.7265,12.6562,12.6172,12.539,12.5234,12.5703,12.4609,12.4062,12.4375,12.3593,12.3515,0.0,9.1481,9.2099,9.1945,8.7863,8.3474,8.1785,7.7242,0.0,7.1243,7.0937,7.0937,7.1091,7.1014,7.1781,7.4086,8.3318,8.8782,8.4869,9.4249,0.0,0.0,11.7097,0.0,0.0,0.0,0.0,0.0,0.0,0.0,0.0,0.0,0.0,13.9405,13.6177,13.4407,13.433,13.1022,12.933,12.9176,12.7489,12.6723,12.6723,0.0,0.0,0.0,0.0,0.0,0.0,12.3326,12.2864,12.2713,12.2026,12.1722,12.2029,12.3482,12.4095,12.4406,12.6104,12.6104,12.5181,12.4329,12.287,12.1414,12.0565,12.0875,12.1183,11.9564,11.9097,11.9331,12.018,12.0331,12.0488,12.1414,12.2864,12.3701,12.2103,12.4418,12.6329,12.4816,12.5763,12.6882,12.6882,12.6809,12.678,12.678,12.6692,12.7038,12.7992,12.8786,12.91,12.83,13.0686,13.1564,13.0135,13.1963,13.2968,13.2578,13.25,13.1718,13.0078,12.9922,12.9531,12.8593,12.7812,12.7265,12.7187,12.5703,12.5312,12.6015,12.5234,12.4922,7.3011,0.0,7.6788,7.4859,7.4243,7.3936,0.0,7.2554,7.217,7.1091,0.0,7.132,7.2624,7.2322,7.4556,8.2785,8.9017,9.2482,9.1484,9.8793,0.0,12.3405,0.0,0.0,0.0,0.0,0.0,0.0,0.0,0.0,0.0,0.0,0.0,13.9328,13.7334,13.5565,13.433,13.2183,13.049,12.9176,12.7489,12.6723,12.6723,0.0,0.0,0.0,0.0,0.0,0.0,12.3867,12.3101,12.2029,12.2408,12.3024,12.3562,12.4024,12.4486,12.5178,12.6338,12.572,12.4332,12.3402,12.2488,12.1571,12.1417,12.1029,12.0488,12.01,11.9564,11.9408,12.0875,12.0795,12.0488,12.1414,12.287,12.4018,12.3562,12.5202,12.6987,12.7806,12.8286,12.8626,12.8626,12.8113,12.7591,12.7591,12.7073,12.7515,12.9581,13.0612,13.1295,13.1769,13.2388,13.2833,13.2596,13.2981,13.3203,13.2968,13.2734,13.2031,13.0937,13.0312,12.9531,12.8593,12.8437,12.7578,12.6328,12.6562,12.6484,12.6015,12.5781,12.539,6.7088,6.9706,7.1863,7.0475,7.1166,7.201,7.1547,7.1552,7.1477,0.0,0.0,7.1321,7.2628,7.3168,0.0,0.0,8.7942,0.0,0.0,0.0,11.3027,12.8025,13.2025,0.0,0.0,0.0,0.0,0.0,0.0,0.0,0.0,0.0,0.0,0.0,13.8107,13.6414,13.433,13.2567,13.0875,12.9176,12.7489,12.6723,12.6723,0.0,0.0,0.0,0.0,0.0,12.5787,12.5409,12.5027,12.4486,12.4562,12.487,12.5335,12.5335,12.5566,12.6107,12.6492,12.5569,12.4021,12.3175,12.2331,12.1568,12.1568,12.1337,12.0875,12.0875,12.0565,12.0491,12.1417,12.1796,12.2026,12.1722,12.4104,12.5867,12.4021,12.6424,12.8825,12.82,12.9323,13.0215,12.9898,12.9738,12.9516,12.9089,12.9019,12.9493,13.0921,13.207,13.2872,13.3002,13.3439,13.3333,13.2673,13.2693,13.2907,13.3202,13.2968,13.25,13.1797,13.1328,13.0468,12.9218,12.9218,12.8515,12.7187,12.7265,12.7265,12.7187,12.6797,12.6406,6.6399,6.9478,7.2402,7.1634,7.2399,7.324,7.3009,7.1857,0.0,0.0,0.0,0.0,0.0,0.0,0.0,0.0,0.0,0.0,11.0175,11.2409,11.7487,13.049,0.0,0.0,0.0,0.0,0.0,0.0,0.0,0.0,0.0,0.0,0.0,0.0,13.8338,13.6491,13.3869,13.2333,13.0794,12.9406,12.7569,12.6723,12.6723,12.6723,0.0,0.0,0.0,0.0,12.7785,12.7178,12.7178,12.7634,12.7028,12.6723,12.6723,12.6569,12.6415,12.6338,12.6184,12.5178,12.4021,12.3175,12.2331,12.1568,12.1568,12.1568,12.1568,12.1568,12.1568,12.1725,12.1876,12.3024,12.379,12.2722,12.5797,12.8019,12.4403,12.7717,13.049,12.7566,12.949,13.133,13.0381,13.1013,13.1198,13.0176,13.0678,13.1081,13.1063,13.2637,13.3491,13.2919,13.348,13.3368,13.2032,13.1801,13.2194,13.3209,13.3196,13.2968,13.25,13.2187,13.1406,12.9922,12.9922,12.9531,12.8593,12.789,12.789,12.8593,12.7812,12.7422,6.8552,7.1627,7.3243,6.894,7.0171,7.2016,7.0627,0.0,0.0,0.0,0.0,0.0,0.0,7.7859,0.0,0.0,0.0,0.0,0.0,0.0,12.7877,0.0,0.0,0.0,0.0,0.0,0.0,0.0,0.0,0.0,0.0,0.0,0.0,0.0,0.0,13.4722,13.2106,13.1182,13.0567,13.0336,12.7877,12.6723,12.6723,12.6723,12.7105,0.0,0.0,0.0,12.7862,12.7788,12.7409,12.6877,12.6723,12.6723,12.6569,12.5876,12.5101,12.4406,12.3713,12.379,12.4021,12.3175,12.2331,12.1568,12.1568,12.1568,12.1568,12.1568,12.1568,12.1873,12.3329,12.3867,12.4409,12.5569,12.7025,12.7862,12.7326,12.8403,12.9406,12.8868,12.9794,13.0407,12.9465,13.0077,13.0061,12.8492,12.8412,12.8517,12.8504,12.9988,13.1262,13.18,13.1962,13.234,13.283,13.0929,13.0709,13.3304,13.3317,13.2968,13.25,13.1093,13.0234,12.9922,12.9922,12.9531,12.8593,12.8515,12.8515,12.8593,12.8515,12.7968,6.7322,7.0475,7.3476,7.386,7.5168,7.6015,7.471,0.0,0.0,0.0,0.0,0.0,0.0,0.0,0.0,0.0,0.0,0.0,0.0,0.0,0.0,0.0,0.0,0.0,0.0,0.0,0.0,0.0,0.0,0.0,0.0,0.0,0.0,0.0,0.0,13.4718,13.3103,13.1413,12.9797,12.8412,12.7264,12.6723,12.6723,12.6723,12.7101,0.0,0.0,12.8403,12.9176,12.8326,12.8022,12.8028,12.7108,12.6723,12.6726,12.6261,12.5797,12.5412,12.4486,12.4175,12.4021,12.3175,12.2331,12.1802,12.2719,12.2334,12.2029,12.3799,12.303,12.1876,12.3098,12.4098,12.4793,12.4716,12.6714,12.8095,12.6172,12.8022,12.9487,12.8102,12.9336,13.0102,12.8705,12.9173,12.9388,12.8079,12.832,12.8609,12.8563,12.9702,13.0603,13.1019,13.1135,13.1032,13.1008,13.0724,13.101,13.2118,13.2377,13.2187,13.1562,13.0,12.9218,12.9218,12.9218,12.8984,12.8593,12.8593,12.8593,12.8593,12.9609,12.9297,6.6631,6.9401,7.3479,7.8783,0.0,0.0,0.0,0.0,0.0,0.0,0.0,0.0,0.0,8.9327,0.0,0.0,0.0,0.0,0.0,0.0,0.0,0.0,0.0,0.0,0.0,0.0,0.0,0.0,0.0,0.0,0.0,0.0,0.0,0.0,0.0,0.0,13.4026,13.1487,12.9182,12.7335,12.6877,12.6723,12.6723,12.6874,12.7409,12.8172,12.8403,12.933,13.0413,12.9099,12.8788,12.9102,12.7566,12.672,12.6415,12.6415,12.6492,12.6569,12.572,12.5178,12.4867,12.4101,12.3178,12.2719,12.4024,12.3178,12.2491,12.5107,12.3799,12.2029,12.3636,12.487,12.5489,12.4636,12.6711,12.8176,12.5637,12.7409,12.9028,12.7108,12.8412,12.9406,12.7868,12.8502,12.8797,12.7799,12.8336,12.8788,12.8628,12.9419,12.9865,12.9865,12.9933,12.973,12.9176,13.0887,13.1923,13.1526,13.1633,13.1507,13.1015,12.9375,12.8515,12.8593,12.8593,12.8593,12.8593,12.8593,12.8828,12.9218,13.0234,13.0234,6.8783,7.0785,7.3633,7.9554,0.0,0.0,0.0,0.0,0.0,0.0,0.0,0.0,0.0,0.0,0.0,0.0,0.0,0.0,0.0,0.0,0.0,0.0,0.0,0.0,0.0,0.0,0.0,0.0,0.0,0.0,0.0,0.0,0.0,0.0,0.0,0.0,13.3112,13.0564,12.9176,12.9022,12.7412,12.6723,12.6723,12.7486,12.8326,12.9179,13.0025,13.0413,13.049,13.0413,12.9871,12.9099,12.8172,12.6868,12.5489,12.5489,12.603,12.6569,12.572,12.6406,12.748,12.672,12.5797,12.5101,12.5335,12.4101,12.2867,12.3098,12.2408,12.2488,12.648,12.7101,12.7031,12.8406,12.8403,12.7862,12.7711,12.7332,12.6877,12.6723,12.7486,12.7791,12.6874,12.812,12.8665,12.7025,12.7511,12.7677,12.6963,12.7597,12.8071,12.8065,12.8065,12.8382,12.9105,13.1532,13.2922,13.2922,13.1691,13.117,13.1795,12.9375,12.8281,12.8593,12.8593,12.8593,12.8593,12.8593,12.9375,13.1015,12.9531,13.0,6.7091,6.9709,7.4095,8.2168,0.0,0.0,0.0,0.0,0.0,0.0,0.0,0.0,0.0,0.0,0.0,0.0,0.0,0.0,0.0,0.0,0.0,0.0,0.0,0.0,0.0,0.0,0.0,0.0,0.0,0.0,0.0,0.0,0.0,0.0,0.0,0.0,0.0,13.149,13.0176,12.9176,12.7489,12.6723,12.6723,12.748,12.8714,13.0025,13.0413,13.0798,13.1182,13.0721,13.0333,12.9871,12.9019,12.8326,12.7794,12.7794,12.8025,12.8179,12.7871,12.7791,12.7788,12.7028,12.6104,12.5489,12.6027,12.5024,12.4098,12.6172,12.5021,12.3485,12.5095,12.5329,12.5412,12.6566,12.7406,12.7634,12.6563,12.7409,12.7871,12.6877,12.7329,12.7634,12.68,12.7191,12.7421,12.6803,12.6963,12.6963,12.6723,12.6963,12.72,12.72,12.72,12.8126,13.0518,13.1571,13.3069,13.5211,13.3981,13.3206,13.2863,13.1305,13.0312,12.9922,12.9609,12.9062,12.8593,12.8593,12.9218,13.039,13.0312,13.0468,6.6705,6.9169,7.3864,0.0,0.0,0.0,0.0,0.0,0.0,0.0,0.0,0.0,0.0,0.0,0.0,0.0,0.0,0.0,0.0,0.0,0.0,0.0,0.0,0.0,0.0,0.0,0.0,0.0,0.0,0.0,0.0,0.0,0.0,0.0,0.0,0.0,0.0,13.1567,13.0179,12.8791,12.7563,12.7105,12.7105,12.7865,12.9099,13.049,13.0798,13.1182,13.1724,13.1105,13.0718,13.041,12.9483,12.9022,12.8788,12.8788,12.9022,12.9176,12.9176,12.9176,12.9022,12.8182,12.7335,12.6717,12.7335,12.6101,12.5021,12.7329,12.5867,12.3787,12.4409,12.4486,12.4713,12.5566,12.6717,12.7175,12.6104,12.7178,12.8105,12.6877,12.7101,12.7329,12.68,12.6723,12.6723,12.6723,12.6723,12.6723,12.6723,12.6723,12.6723,12.6723,12.7172,12.8628,13.149,13.2179,13.3704,13.6562,13.5926,13.4926,13.3891,13.2777,13.1694,13.0703,13.039,12.9687,12.8593,12.8593,12.9297,13.0703,13.0468,13.0625,6.8391,6.9625,7.2629,0.0,0.0,0.0,0.0,0.0,0.0,0.0,0.0,0.0,0.0,0.0,0.0,0.0,0.0,0.0,0.0,0.0,0.0,0.0,0.0,0.0,0.0,0.0,0.0,0.0,0.0,0.0,0.0,0.0,0.0,0.0,0.0,0.0,0.0,13.049,12.8791,12.7862,12.7862,12.7862,12.7862,12.8788,12.9714,13.0567,13.1416,13.1721,13.1721,13.1721,13.1182,13.041,12.9563,12.8714,12.7862,12.7939,12.848,12.9176,12.9176,13.0333,13.1567,13.0798,12.9871,12.9176,12.9176,12.7409,12.5412,12.5412,12.4175,12.3329,12.5027,12.5412,12.5566,12.6492,12.6723,12.6723,12.6723,12.6723,12.6723,12.6723,12.6723,12.6723,12.6723,12.6723,12.6723,12.6723,12.6723,12.6723,12.6723,12.6723,12.6723,12.6723,12.8215,12.9898,13.1564,13.3292,13.4974,13.6719,13.6799,13.6167,13.4817,13.3387,13.209,13.078,13.1015,13.039,12.8593,12.8593,12.9922,13.2422,12.9765,13.0468,6.7167,7.094,0.0,8.3091,0.0,0.0,0.0,0.0,0.0,0.0,0.0,0.0,0.0,0.0,0.0,0.0,0.0,0.0,0.0,0.0,0.0,0.0,0.0,0.0,0.0,0.0,0.0,0.0,0.0,0.0,0.0,0.0,0.0,0.0,0.0,0.0,0.0,0.0,12.9099,12.8788,12.8788,12.848,12.8019,12.9406,13.0567,13.1416,13.1567,13.1721,13.1721,13.1721,13.1182,13.0487,13.0794,13.049,12.9794,13.041,13.0718,13.1028,13.1028,13.1336,13.1567,13.0798,12.9871,12.9099,12.848,12.6868,12.5489,12.6104,12.5101,12.4098,12.5876,12.5876,12.5566,12.6492,12.6723,12.6723,12.6723,12.6723,12.6723,12.6723,12.6723,12.6723,12.6723,12.6723,12.6723,12.6723,12.6723,12.6723,12.6723,12.6723,12.7184,12.8332,12.8936,13.0394,13.333,13.4026,13.5026,13.6722,13.6799,13.6562,13.6167,13.5372,13.4407,13.2974,13.2139,13.1015,12.9531,12.9531,13.0234,13.1562,13.0234,13.039,7.2864,7.7557,0.0,8.9633,9.7555,10.64,0.0,0.0,0.0,0.0,0.0,0.0,0.0,0.0,0.0,0.0,0.0,0.0,0.0,0.0,0.0,0.0,0.0,0.0,0.0,0.0,0.0,0.0,0.0,0.0,0.0,0.0,0.0,0.0,0.0,0.0,0.0,0.0,0.0,12.9714,12.9406,12.9099,12.9022,13.0025,13.0875,13.1721,13.1721,13.1721,13.1721,13.1721,13.1413,13.1028,13.1182,13.0875,13.0567,13.1025,13.1413,13.1721,13.1721,13.2183,13.2487,13.1413,13.041,12.9563,12.8714,12.7175,12.6027,12.6569,12.572,12.487,12.6338,12.6107,12.5566,12.6492,12.6415,12.6338,12.6569,12.6723,12.68,12.7105,12.7178,12.7178,12.7178,12.6874,12.6723,12.6723,12.6723,12.6874,12.7566,12.772,12.8332,13.0025,13.0791,13.1791,13.318,13.3891,13.4574,13.5218,13.5291,13.5372,13.5769,13.6007,13.5211,13.3306,13.2714,13.1484,12.9687,13.0234,13.0703,13.1172,13.0703,13.0703,8.2022,8.6709,0.0,9.779,10.4174,0.0,12.2793,0.0,0.0,0.0,0.0,0.0,0.0,0.0,0.0,0.0,0.0,0.0,0.0,0.0,0.0,0.0,0.0,0.0,0.0,0.0,0.0,0.0,0.0,0.0,0.0,0.0,0.0,0.0,0.0,0.0,0.0,0.0,0.0,0.0,12.9717,12.9714,13.0413,13.0487,13.1028,13.1721,13.1567,13.1567,13.1721,13.1721,13.1724,13.149,13.0875,13.0567,13.049,13.0721,13.1182,13.1798,13.1875,13.3026,13.4023,13.2413,13.1336,13.041,12.9563,12.8102,12.6723,12.68,12.6104,12.5566,12.6492,12.6104,12.572,12.6492,12.6027,12.572,12.6569,12.6803,12.7031,12.7785,12.8019,12.7862,12.7862,12.7178,12.6803,12.6877,12.6874,12.7489,12.9179,12.9406,13.0102,13.1798,13.318,13.3487,13.2106,13.3276,13.3866,13.3166,13.3082,13.348,13.4275,13.5385,13.483,13.2371,13.2934,13.2023,12.9609,13.0781,13.1328,13.1328,13.1328,13.1328,7.8559,8.6632,0.0,10.1484,11.1329,12.0482,12.3716,12.487,0.0,0.0,0.0,0.0,0.0,0.0,0.0,0.0,0.0,0.0,0.0,0.0,0.0,0.0,0.0,0.0,0.0,0.0,0.0,0.0,0.0,0.0,0.0,0.0,0.0,0.0,0.0,12.9871,13.0718,12.8868,12.8403,0.0,13.0025,13.0025,12.9483,13.0794,13.149,13.1724,13.1025,13.1105,13.1721,13.1721,13.1336,13.0798,13.1336,13.1105,13.0721,13.2032,13.2574,13.2801,13.3487,13.4023,13.41,13.3109,13.2106,13.1336,13.049,12.8566,12.68,12.7486,12.6563,12.5566,12.6492,12.6569,12.6495,12.6726,12.6027,12.5794,12.7329,12.7101,12.7105,12.8637,12.8403,12.7862,12.7862,12.7178,12.7105,12.8486,12.8717,12.9333,13.0871,13.1182,13.1795,13.3564,13.2875,13.2721,13.3718,13.3513,13.3516,13.4029,13.3975,13.4071,13.4305,13.4465,13.4225,13.3196,13.2882,13.2407,13.1406,13.2031,13.2187,13.2187,13.2187,13.2187,8.2324,9.0556,10.0022,10.8026,0.0,12.2485,12.3326,12.4175,12.5409,0.0,0.0,0.0,0.0,0.0,0.0,0.0,0.0,0.0,0.0,0.0,0.0,0.0,0.0,0.0,0.0,0.0,0.0,0.0,0.0,0.0,0.0,0.0,0.0,0.0,12.8871,12.8563,12.9871,12.8179,12.8179,12.9791,13.0333,13.0336,12.9871,13.0718,13.1105,13.1105,13.1105,13.1336,13.1721,13.1721,13.149,13.1105,13.149,13.1413,13.1182,13.2493,13.3263,13.3721,13.41,13.4564,13.4718,13.3417,13.2417,13.149,13.0179,12.8717,12.7332,12.7332,12.672,12.6104,12.6569,12.6723,12.6723,12.6723,12.6027,12.5873,12.7477,12.7637,12.7794,12.9487,12.9099,12.848,12.848,12.7791,12.7563,12.8403,12.933,13.041,13.2109,13.234,13.2798,13.418,13.3487,13.3032,13.2971,13.2586,13.2608,13.3034,13.2736,13.2726,13.2993,13.3227,13.3227,13.2913,13.2913,13.2607,13.2031,13.2812,13.289,13.25,13.289,13.289,8.6628,9.5095,10.4028,11.3797,11.8801,0.0,12.2331,12.3098,12.387,12.4565,0.0,0.0,0.0,0.0,0.0,0.0,0.0,0.0,0.0,0.0,0.0,0.0,0.0,0.0,0.0,0.0,0.0,0.0,0.0,0.0,0.0,0.0,13.0798,12.9173,12.7717,12.7489,12.8794,12.7489,12.8028,13.0105,13.0179,13.0179,13.0025,12.9871,12.9871,13.0102,13.1105,13.1413,13.1336,13.1567,13.1721,13.1721,13.149,13.1567,13.1801,13.2493,13.3337,13.4103,13.4177,13.4715,13.5026,13.3494,13.2417,13.1413,12.9871,12.8714,12.7788,12.7105,12.68,12.6723,12.6723,12.6723,12.6723,12.6723,12.6104,12.6024,12.7634,12.8092,12.8711,13.0025,12.9563,12.8868,12.8791,12.8176,12.7785,12.8326,12.9563,13.1105,13.2801,13.3109,13.3414,13.4023,13.3869,13.3263,13.1823,13.1573,13.1605,13.1698,13.0903,13.0931,13.1936,13.2029,13.2097,13.22,13.2917,13.2895,13.2187,13.3281,13.3437,13.2734,13.3828,13.3672,8.2712,9.5867,10.9024,11.4181,11.749,11.9562,0.0,0.0,12.2029,0.0,0.0,0.0,0.0,0.0,0.0,0.0,0.0,0.0,0.0,0.0,0.0,0.0,0.0,0.0,0.0,0.0,0.0,0.0,0.0,0.0,0.0,13.0718,13.0179,12.9176,12.8329,12.7483,12.7028,12.7483,12.7865,12.8326,12.9022,12.9022,12.8172,12.7489,12.7566,12.8323,13.0025,13.0179,12.9637,13.1105,13.1721,13.1567,13.0875,13.1105,13.1721,13.1798,13.2413,13.3263,13.4023,13.4407,13.4334,13.3263,13.2417,13.149,13.0564,12.9176,12.7865,12.7788,12.7178,12.6723,12.6723,12.6723,12.6723,12.6723,12.6569,12.68,12.7711,12.9099,13.0025,12.9487,12.8714,12.7868,12.7184,12.6874,12.7566,12.9794,13.0413,13.1105,13.2801,13.3721,13.3869,13.317,13.2487,13.201,13.1734,13.1061,13.1032,13.1722,13.0893,13.1218,13.2778,13.183,13.1502,13.2223,13.2932,13.3109,13.2968,13.3593,13.3672,13.3672,13.5234,13.5078,8.3095,9.5018,10.5787,11.0483,11.3635,11.6022,11.7798,11.918,12.0334,12.0798,0.0,0.0,0.0,0.0,0.0,0.0,0.0,0.0,0.0,0.0,0.0,0.0,0.0,0.0,0.0,0.0,0.0,0.0,0.0,0.0,12.9791,12.933,12.8717,12.7794,12.7025,0.0,12.603,12.6794,12.7486,12.7862,12.7791,12.7566,12.7178,12.6877,12.6874,12.7332,12.9022,12.9025,12.7874,12.9563,12.9717,12.8877,12.9025,12.933,12.9714,13.0721,13.1336,13.1801,13.3106,13.3337,13.2875,13.3035,13.2109,13.0875,13.0025,12.8868,12.7785,12.7409,12.7028,12.6723,12.6723,12.6723,12.6723,12.6723,12.7412,12.7871,12.7412,12.8179,12.8865,12.848,12.8172,12.7634,12.68,12.7105,12.7871,12.9483,13.0564,13.1564,13.2792,13.333,13.316,13.2365,13.1929,13.1737,13.1691,13.1423,13.1493,13.2387,13.1576,13.149,13.2217,13.1887,13.1776,13.2162,13.2894,13.3203,13.3203,13.3593,13.3828,13.3828,13.4609,13.4531,8.1785,9.1018,9.8937,10.3789,10.7867,11.1406,11.4027,0.0,11.8718,0.0,0.0,0.0,0.0,0.0,0.0,0.0,0.0,0.0,0.0,0.0,0.0,0.0,0.0,0.0,0.0,0.0,0.0,0.0,0.0,0.0,12.8332,12.7406,12.6791,12.6415,12.5104,12.4486,12.4793,12.5412,12.6101,12.6865,12.6566,12.6261,12.6027,12.5797,12.5569,12.5492,12.7563,12.7566,12.6184,12.7874,12.7871,12.7025,12.7406,12.7865,12.8403,12.9406,13.0025,13.0333,13.1567,13.1567,13.1182,13.1798,13.1025,12.9794,12.933,12.8403,12.7483,12.7105,12.6877,12.6723,12.6723,12.6723,12.6723,12.6723,12.8028,12.8871,12.7566,12.7486,12.7711,12.8095,12.8172,12.8019,12.7412,12.8022,12.8634,12.8788,13.0336,13.149,13.2029,13.217,13.2003,13.1218,13.1077,13.1198,13.1433,13.1371,13.1801,13.2596,13.1881,13.1518,13.1676,13.1685,13.1881,13.2118,13.2601,13.2988,13.3203,13.3593,13.3828,13.3828,13.4218,13.4218,7.5786,8.2247,8.9173,9.3407,10.0024,10.6179,10.8713,11.3101,11.6874,11.7789,0.0,0.0,0.0,0.0,0.0,0.0,0.0,0.0,0.0,0.0,0.0,0.0,0.0,0.0,0.0,0.0,0.0,0.0,0.0,0.0,12.5563,12.4793,12.4716,12.5409,12.3107,12.218,12.3018,12.3098,12.3482,12.4329,12.5101,12.5024,12.4175,12.3402,12.2636,12.2109,12.5415,12.5797,12.4409,12.6104,12.7178,12.7788,12.7025,12.7717,12.9019,12.8326,12.8637,12.933,12.9406,12.9406,12.933,12.9406,12.8788,12.8172,12.9022,12.8105,12.6874,12.7634,12.7332,12.6723,12.6723,12.6723,12.6723,12.6723,12.8028,12.9176,12.9099,12.7874,12.7181,12.8791,12.9099,12.9099,12.9099,12.9794,12.9791,12.8172,12.9416,13.0278,12.9514,13.0096,13.033,12.9397,12.932,12.9661,13.0538,13.0615,13.0929,13.1721,13.101,13.0929,13.173,13.1013,13.0929,13.1721,13.2098,13.262,13.3203,13.3593,13.3828,13.3828,13.539,13.5312,7.3857,7.8783,8.4403,8.8635,9.3715,9.9178,10.4484,10.918,11.3335,11.633,0.0,0.0,0.0,0.0,0.0,0.0,0.0,0.0,0.0,0.0,0.0,0.0,0.0,0.0,0.0,0.0,0.0,0.0,0.0,0.0,12.4636,12.379,12.3482,12.379,12.2414,12.2026,12.2864,12.2331,12.2485,12.3326,12.3104,12.2796,12.2491,12.1562,12.1103,12.0795,12.1488,12.1796,12.1793,12.4101,12.4565,12.387,12.4716,12.5101,12.5172,12.6021,12.6486,12.6794,12.6794,12.7791,12.9176,12.9176,12.9022,12.8788,12.9099,12.8025,12.68,12.7025,12.6874,12.6723,12.6723,12.7489,12.8566,12.9724,12.9487,12.9483,13.0564,12.8566,12.7492,13.0336,12.9483,12.8711,12.9791,12.9791,12.8868,12.6637,12.8726,12.9788,12.7793,12.9279,13.0573,13.0835,13.034,13.0395,13.119,13.1284,13.1404,13.1721,13.1404,13.1404,13.1721,13.1404,13.1404,13.1721,13.1961,13.2292,13.2578,13.289,13.3125,13.3125,13.3672,13.3672,7.0549,7.4013,7.84,8.3249,8.7175,9.2174,10.1019,10.5405,10.9334,11.4874,11.6564,0.0,0.0,0.0,0.0,0.0,0.0,0.0,0.0,0.0,0.0,0.0,0.0,0.0,0.0,0.0,0.0,0.0,0.0,0.0,12.4562,12.379,12.279,12.1713,12.1103,12.1023,12.1636,12.1103,12.118,12.2021,12.1408,12.1029,12.0719,12.018,11.9872,11.9872,11.9562,11.9792,12.0411,12.2098,12.2485,12.2103,12.3329,12.3713,12.3867,12.5027,12.5566,12.5797,12.5797,12.6871,12.8412,12.8412,12.8483,12.8788,12.9099,12.8563,12.8031,12.8339,12.8031,12.7723,12.8182,12.9182,13.0333,13.1413,13.0794,13.0718,13.2875,13.049,12.88,13.157,13.0333,12.9173,13.0721,13.041,12.9333,12.7025,12.9071,13.0223,12.8181,12.951,13.073,13.1232,13.058,13.0398,13.1193,13.1288,13.1404,13.1721,13.1721,13.1721,13.1721,13.1721,13.1721,13.1721,13.1881,13.1966,13.2036,13.2505,13.2662,13.2662,13.2662,13.2662,0.0,0.0,0.0,0.0,8.0173,8.5324,9.786,10.1476,10.4636,11.3178,11.5025,0.0,0.0,0.0,0.0,0.0,0.0,0.0,0.0,0.0,0.0,0.0,0.0,0.0,0.0,0.0,0.0,0.0,0.0,12.6181,12.5412,12.4486,12.2405,11.9177,11.91,11.91,11.9097,11.9097,11.9485,12.0331,12.0334,11.9792,11.91,11.9023,11.9023,11.91,11.9872,12.0177,12.0334,12.0334,12.1328,12.2867,12.2864,12.3867,12.5335,12.5332,12.5876,12.6569,12.6569,12.6569,12.6723,12.6723,12.7178,12.8095,12.9022,12.9794,13.0564,13.149,13.0487,12.9717,13.1336,13.1721,13.1724,13.1798,13.1798,13.2721,13.603,13.3491,13.1105,13.2804,13.1724,13.0798,13.1567,13.1721,13.1102,12.9406,13.0524,13.1266,13.0463,13.0407,13.0413,13.0515,12.9801,12.9581,13.0532,13.0532,13.0929,13.1721,13.1721,13.1721,13.1721,13.1721,13.1721,13.1721,13.1721,13.1721,13.1721,13.2436,13.2676,13.2676,13.2676,13.2676,6.4703,0.0,0.0,0.0,0.0,0.0,0.0,9.0554,9.6014,10.5177,10.9024,11.187,0.0,0.0,0.0,0.0,0.0,0.0,0.0,0.0,0.0,0.0,0.0,0.0,0.0,0.0,0.0,0.0,12.5178,12.4486,12.3636,12.1636,11.9792,11.8174,11.8792,11.9408,12.0026,12.0026,12.0411,12.1183,11.9408,11.8712,11.9103,11.7795,11.7564,11.8174,11.8405,11.8789,11.9485,12.0719,12.1488,12.2026,12.2716,12.2793,12.2719,12.3408,12.4098,12.4636,12.3414,12.5027,12.7406,12.6181,12.6714,12.8172,12.9717,12.9871,12.9871,13.1336,13.1413,13.1413,13.3099,13.1715,13.0794,13.4491,13.4491,13.4026,13.5488,13.4487,13.3564,13.4564,13.2872,13.1567,13.2493,13.2109,13.0721,12.7797,12.7775,12.7974,12.7761,12.7225,12.8002,13.097,13.0628,13.0532,13.1324,13.1404,13.1484,13.1721,13.1721,13.1721,13.1721,13.1721,13.1721,13.1721,13.1721,13.1721,13.1721,13.1881,13.1961,13.1961,13.1961,13.2118,0.0,0.0,0.0,0.0,0.0,0.0,8.2401,8.6707,9.1708,0.0,10.5487,10.8485,11.3871,11.4484,0.0,0.0,0.0,0.0,0.0,0.0,0.0,0.0,0.0,0.0,0.0,0.0,0.0,0.0,12.5101,12.4332,12.3402,12.1713,12.0331,11.9408,11.9485,11.9718,11.9792,11.9792,12.018,12.1029,11.8789,11.8405,11.9485,11.7792,11.7715,11.8789,11.8789,11.9331,12.018,12.1183,12.1568,12.1725,12.218,12.2488,12.2719,12.2787,12.3636,12.4486,12.3101,12.4486,12.6714,12.5717,12.6794,12.8637,12.9176,13.033,13.1487,13.2109,13.3032,13.3721,13.3333,13.2484,13.241,13.4725,13.4718,13.4407,13.4869,13.4638,13.4177,13.4026,13.241,13.1416,13.1878,13.149,13.0721,12.9028,12.8816,12.8788,12.8807,12.8265,12.9023,13.1404,13.1324,13.1167,13.1721,13.1721,13.1721,13.1721,13.1721,13.1721,13.1721,13.1721,13.1721,13.1721,13.1721,13.2118,13.2833,13.2118,13.2118,13.2833,13.2436,13.2516,0.0,0.0,0.0,0.0,0.0,0.0,8.2939,8.5788,8.9096,0.0,10.1791,10.3792,10.948,10.9018,10.9175,0.0,0.0,0.0,0.0,0.0,0.0,0.0,0.0,0.0,0.0,12.5332,12.572,12.6492,12.572,12.487,12.4021,12.3098,12.2331,12.1568,12.0795,12.01,11.9482,11.9482,11.9792,12.0334,11.8789,11.8789,12.01,11.8635,11.8789,12.0334,12.0334,12.0719,12.1494,12.1571,12.1568,12.1568,12.1568,12.2488,12.3713,12.3095,12.379,12.5024,12.4175,12.4636,12.5412,12.5335,12.6871,12.8791,12.8403,13.1022,13.3869,13.3494,13.4802,13.5722,13.2875,13.3721,13.4875,13.3494,13.3798,13.4407,13.418,13.418,13.3561,13.1798,13.1105,13.0718,13.0564,13.0564,13.0875,13.1567,13.1416,13.1303,13.1731,13.1417,13.1266,13.1724,13.1721,13.1801,13.1961,13.1961,13.2118,13.2278,13.2198,13.2118,13.2118,13.1961,13.1961,13.2118,13.2198,13.299,13.4577,13.2676,13.2827,13.4638,13.3676,13.3603,0.0,0.0,0.0,0.0,0.0,0.0,0.0,7.5784,7.9785,0.0,8.8712,9.202,9.6559,9.9252,10.087,10.1176,0.0,0.0,0.0,0.0,0.0,0.0,0.0,0.0,0.0,12.5024,12.5489,12.5563,12.4793,12.4021,12.3172,12.1716,12.1103,12.1568,12.1414,12.1565,12.2174,12.2174,12.1482,12.0334,12.0026,11.9562,11.9331,11.9023,11.9408,12.0334,12.0334,12.0411,12.0565,12.1337,12.1568,12.1568,12.1568,12.1799,12.2183,12.2713,12.3098,12.3405,12.3172,12.4098,12.5335,12.4562,12.5563,12.7723,13.0182,13.1487,13.2718,13.5337,13.4875,13.3878,13.4568,13.4106,13.3571,13.4026,13.4718,13.4872,13.3491,13.3263,13.249,13.0179,13.1182,13.2263,13.1567,13.149,13.149,13.1721,12.9413,12.8736,13.1377,12.9299,12.8677,13.1416,13.1721,13.2278,13.3705,13.3785,13.4417,13.5687,13.5132,13.4814,13.4814,13.4102,13.4102,13.4734,13.5369,13.6004,13.6322,13.3865,13.3978,13.6273,13.5392,13.481,0.0,0.0,0.0,6.9632,0.0,0.0,0.0,7.3859,7.7169,8.1402,8.3324,8.594,9.1402,9.2095,9.2939,9.6324,10.2171,0.0,0.0,0.0,0.0,0.0,0.0,0.0,0.0,12.4332,12.4793,12.4793,12.4021,12.3098,12.2331,12.179,12.1565,12.1568,12.2026,12.2024,12.1636,12.2024,12.2024,12.1636,12.0716,12.0795,12.1482,11.9869,11.9795,12.0872,12.0488,12.0485,12.1029,12.1414,12.1568,12.1568,12.1568,12.1876,12.2177,12.2334,12.2482,12.2787,12.2408,12.3101,12.4098,12.4098,12.5563,12.7486,12.8797,13.0108,13.1798,13.518,13.4872,13.3795,13.4718,13.4029,13.3109,13.3491,13.3564,13.3414,13.249,13.2417,13.1878,13.0179,13.1182,13.1875,13.0718,13.1102,13.1721,13.1721,13.0262,12.9797,13.149,13.0992,13.1088,13.2762,13.3705,13.4577,13.5526,13.551,13.5926,13.6719,13.6401,13.611,13.6085,13.5767,13.5664,13.6087,13.6562,13.7197,13.7989,13.6401,13.6401,13.7989,13.6689,13.59,0.0,0.0,0.0,0.0,0.0,7.0855,0.0,0.0,0.0,7.9248,7.9477,8.0862,8.6476,0.0,0.0,0.0,0.0,0.0,0.0,0.0,0.0,0.0,0.0,0.0,0.0,12.2408,12.3021,12.4021,12.2636,12.1713,12.1796,12.2408,12.2485,12.2106,12.2793,12.2482,12.1023,12.1719,12.218,12.2405,12.11,12.1485,12.3329,12.0716,12.0334,12.1571,12.0875,12.0872,12.1568,12.1568,12.1568,12.1568,12.1568,12.2026,12.2636,12.2026,12.2177,12.2562,12.2026,12.2408,12.3172,12.3867,12.5864,12.8019,12.7412,12.9028,13.149,13.4103,13.4334,13.3795,13.3795,13.3337,13.2724,13.2724,13.234,13.1875,13.1721,13.1567,13.1182,13.041,13.0798,13.0794,12.9717,13.0718,13.1721,13.1721,13.1721,13.1721,13.1721,13.2913,13.3933,13.4302,13.5495,13.6601,13.7214,13.7294,13.7431,13.7829,13.7591,13.7471,13.7481,13.7485,13.7522,13.7511,13.7671,13.8384,13.9812,13.91,13.9224,13.9779,13.8187,13.7284,0.0,0.0,0.0,0.0,7.4782,0.0,0.0,0.0,7.2325,7.1321,0.0,0.0,0.0,0.0,0.0,0.0,0.0,0.0,8.8246,9.4244,0.0,0.0,0.0,0.0,0.0,0.0,11.918,12.379,11.9792,11.8792,12.2636,12.2103,12.2411,12.3793,12.3867,12.3867,12.3716,12.379,12.2713,12.0562,12.1183,12.1183,12.0716,12.1103,12.1414,12.1568,12.1494,12.1491,12.1568,12.1568,12.1568,12.1568,12.1568,12.1725,12.1799,12.2482,12.2331,12.1796,12.2482,12.3329,12.4021,12.4098,12.6326,12.9022,12.8868,13.0721,13.257,13.2183,13.2106,13.2029,13.2029,13.1875,13.1798,13.1798,13.2417,13.257,13.1875,13.1102,13.0413,12.9483,12.9406,12.9717,13.0336,13.1105,13.1721,13.1721,13.1721,13.1721,13.1721,13.1881,13.2625,13.4085,13.4499,13.5826,13.8826,13.9033,13.9732,14.1164,14.0605,14.0214,14.0227,14.0227,14.0221,14.021,14.0923,14.1402,14.1636,14.1479,14.1489,14.1576,14.0612,13.8993,0.0,0.0,0.0,0.0,0.0,0.0,0.0,0.0,7.0706,0.0,0.0,0.0,0.0,0.0,0.0,0.0,0.0,0.0,0.0,0.0,9.6788,0.0,0.0,0.0,0.0,0.0,0.0,0.0,0.0,11.7179,12.0482,12.0795,12.1414,12.2565,12.2562,12.2411,12.187,12.2867,12.2636,12.1106,12.0875,12.0872,12.1029,12.0411,12.0411,12.0795,12.0795,12.1103,12.1568,12.1568,12.1568,12.1568,12.1568,12.1568,12.1568,12.2026,12.1873,12.1722,12.2636,12.3095,12.3636,12.5101,12.6566,12.8028,12.9487,13.0025,13.0179,13.0794,13.0564,13.0176,13.0176,13.0176,13.0176,13.0176,13.0487,13.0718,13.0333,13.0025,12.9487,12.8634,12.8868,12.933,12.9717,13.041,13.1182,13.1567,13.1721,13.1721,13.1721,13.2596,13.3522,13.418,13.598,13.7799,13.9183,14.021,14.1084,14.1877,14.1636,14.1636,14.2034,14.2115,14.2115,14.2115,14.2429,14.2429,14.1877,14.1877,14.1877,14.1877,14.1003,13.9522,7.9323,0.0,0.0,0.0,0.0,0.0,0.0,0.0,0.0,0.0,0.0,0.0,0.0,0.0,0.0,0.0,0.0,0.0,0.0,0.0,0.0,0.0,0.0,0.0,0.0,0.0,0.0,0.0,0.0,0.0,11.8792,11.9408,12.0177,12.1571,12.1417,12.0872,12.0334,12.1328,12.1485,12.0875,12.0334,12.0334,12.0875,11.9872,11.9715,12.0334,12.0334,12.0795,12.1568,12.1568,12.1568,12.1568,12.1876,12.1799,12.1568,12.1568,12.1876,12.2334,12.2793,12.3172,12.3867,12.603,12.6723,12.7031,12.8877,12.8868,12.8403,12.9179,12.9333,12.9099,12.8868,12.8788,12.8868,12.9099,12.9176,12.9176,12.9176,12.9022,12.8714,12.8015,12.8403,12.8865,12.9179,12.9871,13.0798,13.1567,13.1721,13.1721,13.1721,13.3215,13.4468,13.493,13.7578,13.9538,13.9976,14.1003,14.1402,14.1164,14.1164,14.1716,14.267,14.28,14.3021,14.3419,14.3209,14.267,14.1877,14.1877,14.1716,14.1164,14.0766,13.9732,0.0,0.0,0.0,0.0,0.0,0.0,0.0,0.0,7.3164,0.0,0.0,0.0,0.0,0.0,0.0,0.0,0.0,0.0,0.0,0.0,0.0,0.0,0.0,0.0,0.0,0.0,0.0,0.0,0.0,0.0,11.8484,11.8328,11.9023,12.1491,12.0798,12.0334,12.0334,11.9564,11.9177,11.9177,11.9177,11.9177,11.9177,11.9869,12.0334,12.0334,12.0334,12.0795,12.1568,12.1568,12.1568,12.1722,12.2482,12.2331,12.1568,12.1568,12.2562,12.3867,12.3175,12.4024,12.5489,12.6415,12.6723,12.6723,12.68,12.7874,12.8791,12.7261,12.8028,12.9022,12.8172,12.7939,12.8172,12.9022,12.9176,12.9176,12.9176,12.848,12.7939,12.7862,12.7862,12.8172,12.9099,12.9871,13.0798,13.1567,13.1721,13.1721,13.1721,13.318,13.4872,13.6491,13.8333,13.9963,14.173,14.1084,14.0291,13.9417,13.9417,14.021,14.1877,14.1934,14.2675,14.4262,14.3489,14.267,14.1877,14.1877,14.1003,13.9417,14.021,13.9732,0.0,0.0,8.9866,8.2789,0.0,0.0,0.0,0.0,0.0,0.0,0.0,0.0,0.0,0.0,0.0,0.0,0.0,0.0,0.0,0.0,0.0,0.0,0.0,0.0,0.0,0.0,0.0,0.0,0.0,0.0,0.0,11.3483,11.5635,11.9795,11.9718,11.9795,12.0334,12.0023,12.018,12.0719,11.9564,11.91,11.91,11.9408,11.9485,11.9485,12.0103,12.0795,12.1568,12.1568,12.1873,12.2482,12.279,12.3021,12.3334,12.3334,12.3329,12.3402,12.4332,12.5335,12.6338,12.6569,12.6723,12.6723,12.6723,12.7108,12.7412,12.688,12.7108,12.7489,12.7181,12.7105,12.7181,12.7489,12.7489,12.7489,12.7489,12.7335,12.7105,12.7105,12.7105,12.7409,12.8172,12.9099,13.0102,13.149,13.1721,13.1721,13.1721,13.2183,13.318,13.5026,13.6591,13.8066,13.9288,13.9602,14.0077,14.1028,14.1028,14.1981,14.4281,14.443,14.4731,14.5206,14.4371,14.3472,14.267,14.1627,14.0994,14.1007,14.0124,13.9204,9.7243,9.686,0.0,0.0,8.7641,0.0,0.0,0.0,0.0,0.0,0.0,0.0,0.0,0.0,0.0,0.0,0.0,0.0,0.0,7.3243,0.0,0.0,0.0,0.0,0.0,0.0,8.8171,9.2943,9.4174,0.0,0.0,0.0,11.2404,11.6327,11.7564,11.8564,11.9408,11.9408,11.9792,12.0719,11.9872,11.9408,11.91,11.91,11.9331,11.9485,11.9795,12.0488,12.1568,12.1568,12.2103,12.2864,12.3172,12.3636,12.4098,12.4098,12.4021,12.4024,12.5412,12.6181,12.6723,12.6723,12.6723,12.6723,12.6723,12.6874,12.7105,12.68,12.6874,12.7105,12.68,12.6723,12.6723,12.6723,12.6723,12.6723,12.6723,12.6723,12.6723,12.6723,12.6874,12.7409,12.8172,12.9099,13.0025,13.1105,13.149,13.1721,13.1721,13.249,13.3491,13.4561,13.6485,13.7802,13.8127,13.8615,13.918,13.9973,14.0616,14.2001,14.4301,14.4885,14.5206,14.5206,14.4412,14.3434,14.2195,14.1074,14.0693,14.0981,14.0061,13.9281]},{"header":{"parameterUnit":"m.s-1","parameterCategory":1,"la1":30.6,"la2":29.2853,"lo1":-89.7004,"lo2":-87.6739,"dy":0.0162,"dx":0.0183,"nx":112,"ny":82,"refTime":"2025-11-05T12:00:00:Z","depth":0,"parameterNumber":3,"parameterNumberName":"V-component_of_WINDS"},"data":[0.0,0.0,0.0,0.0,0.0,0.0,0.0,0.0,0.0,0.0,0.0,0.0,0.0,0.0,0.0,0.0,0.0,0.0,0.0,0.0,0.0,0.0,0.0,0.0,0.0,0.0,0.0,0.0,0.0,0.0,0.0,0.0,0.0,0.0,0.0,0.0,0.0,0.0,0.0,0.0,0.0,0.0,0.0,0.0,0.0,0.0,0.0,0.0,0.0,0.0,0.0,0.0,0.0,0.0,0.0,0.0,0.0,0.0,0.0,0.0,0.0,0.0,0.0,0.0,0.0,0.0,0.0,0.0,0.0,0.0,0.0,0.0,0.0,0.0,0.0,0.0,0.0,0.0,0.0,0.0,0.0,0.0,0.0,0.0,0.0,0.0,0.0,0.0,0.0,0.0,0.0,0.0,0.0,0.0,0.0,0.0,0.0,0.0,0.0,0.0,0.0,0.0,0.0,0.0,0.0,0.0,0.0,0.0,0.0,0.0,0.0,0.0,0.0,0.0,0.0,0.0,0.0,0.0,0.0,0.0,0.0,0.0,0.0,0.0,0.0,0.0,0.0,0.0,0.0,0.0,0.0,0.0,0.0,0.0,0.0,0.0,0.0,0.0,0.0,0.0,0.0,0.0,0.0,0.0,0.0,0.0,0.0,0.0,0.0,0.0,0.0,0.0,0.0,0.0,0.0,0.0,0.0,0.0,0.0,0.0,0.0,0.0,0.0,0.0,0.0,0.0,0.0,0.0,0.0,0.0,0.0,0.0,0.0,0.0,0.0,0.0,0.0,0.0,0.0,0.0,0.0,0.0,0.0,0.0,0.0,0.0,0.0,0.0,0.0,0.0,0.0,0.0,0.0,0.0,0.0,0.0,0.0,0.0,0.0,0.0,0.0,0.0,0.0,0.0,0.0,0.0,0.0,0.0,0.0,0.0,0.0,0.0,0.0,0.0,0.0,0.0,0.0,0.0,0.0,0.0,0.0,0.0,0.0,0.0,0.0,0.0,0.0,0.0,0.0,0.0,0.0,0.0,0.0,0.0,0.0,0.0,0.0,0.0,0.0,0.0,0.0,0.0,0.0,0.0,0.0,0.0,0.0,0.0,0.0,0.0,0.0,0.0,0.0,0.0,0.0,0.0,0.0,0.0,0.0,0.0,0.0,0.0,0.0,0.0,0.0,0.0,0.0,0.0,0.0,0.0,0.0,0.0,0.0,0.0,0.0,0.0,0.0,0.0,0.0,0.0,0.0,0.0,0.0,0.0,0.0,0.0,0.0,0.0,0.0,0.0,0.0,0.0,0.0,0.0,0.0,0.0,0.0,0.0,0.0,0.0,0.0,0.0,0.0,0.0,0.0,0.0,0.0,0.0,0.0,0.0,0.0,0.0,0.0,0.0,0.0,0.0,0.0,0.0,0.0,0.0,0.0,0.0,0.0,0.0,0.0,0.0,0.0,0.0,0.0,0.0,0.0,0.0,0.0,0.0,0.0,0.0,0.0,0.0,0.0,0.0,0.0,0.0,0.0,0.0,0.0,0.0,0.0,0.0,0.0,0.0,0.0,0.0,0.0,0.0,0.0,0.0,0.0,0.0,0.0,0.0,0.0,0.0,0.0,0.0,0.0,0.0,0.0,0.0,0.0,0.0,0.0,0.0,0.0,0.0,0.0,0.0,0.0,0.0,0.0,0.0,0.0,0.0,0.0,0.0,0.0,0.0,0.0,0.0,0.0,0.0,0.0,0.0,0.0,0.0,0.0,0.0,0.0,0.0,0.0,0.0,0.0,0.0,0.0,0.0,0.0,0.0,0.0,0.0,0.0,0.0,0.0,0.0,0.0,0.0,0.0,0.0,0.0,0.0,0.0,0.0,0.0,0.0,0.0,0.0,0.0,0.0,0.0,0.0,0.0,0.0,0.0,0.0,0.0,0.0,0.0,0.0,0.0,0.0,0.0,0.0,0.0,0.0,0.0,0.0,0.0,0.0,0.0,0.0,0.0,0.0,0.0,0.0,0.0,0.0,0.0,0.0,0.0,0.0,0.0,0.0,0.0,0.0,0.0,0.0,0.0,0.0,0.0,0.0,0.0,0.0,0.0,0.0,0.0,0.0,0.0,0.0,0.0,0.0,0.0,0.0,0.0,0.0,0.0,0.0,0.0,0.0,0.0,0.0,0.0,0.0,0.0,0.0,0.0,0.0,0.0,0.0,0.0,0.0,0.0,0.0,0.0,0.0,0.0,0.0,0.0,0.0,0.0,0.0,0.0,0.0,0.0,0.0,0.0,0.0,0.0,0.0,0.0,0.0,0.0,0.0,0.0,0.0,0.0,0.0,0.0,0.0,0.0,0.0,0.0,0.0,0.0,0.0,0.0,0.0,0.0,0.0,0.0,0.0,0.0,0.0,0.0,0.0,0.0,0.0,0.0,0.0,0.0,0.0,0.0,0.0,0.0,0.0,0.0,0.0,0.0,0.0,0.0,0.0,0.0,0.0,0.0,0.0,0.0,0.0,0.0,0.0,0.0,0.0,0.0,0.0,0.0,0.0,0.0,0.0,0.0,0.0,0.0,0.0,0.0,0.0,0.0,0.0,0.0,0.0,0.0,0.0,0.0,0.0,0.0,0.0,0.0,0.0,0.0,0.0,0.0,0.0,0.0,0.0,0.0,0.0,0.0,0.0,0.0,0.0,0.0,0.0,0.0,0.0,0.0,0.0,0.0,0.0,0.0,0.0,0.0,0.0,0.0,0.0,0.0,0.0,0.0,0.0,0.0,0.0,0.0,0.0,0.0,0.0,0.0,0.0,0.0,0.0,0.0,0.0,0.0,0.0,0.0,0.0,0.0,0.0,0.0,0.0,0.0,0.0,0.0,0.0,0.0,0.0,0.0,0.0,0.0,0.0,0.0,0.0,0.0,0.0,0.0,0.0,0.0,0.0,0.0,0.0,0.0,0.0,0.0,0.0,0.0,0.0,0.0,0.0,0.0,0.0,0.0,0.0,0.0,0.0,0.0,0.0,0.0,0.0,0.0,0.0,0.0,0.0,0.0,0.0,0.0,0.0,0.0,0.0,0.0,0.0,0.0,0.0,0.0,0.0,0.0,0.0,0.0,0.0,0.0,0.0,0.0,0.0,0.0,0.0,0.0,0.0,0.0,0.0,0.0,0.0,0.0,0.0,0.0,0.0,0.0,0.0,0.0,0.0,0.0,0.0,0.0,0.0,0.0,0.0,0.0,0.0,0.0,0.0,0.0,0.0,0.0,0.0,0.0,0.0,0.0,0.0,0.0,0.0,0.0,0.0,0.0,0.0,0.0,0.0,0.0,0.0,0.0,0.0,0.0,0.0,0.0,0.0,0.0,0.0,0.0,0.0,0.0,0.0,0.0,0.0,0.0,0.0,0.0,0.0,0.0,0.0,0.0,0.0,0.0,0.0,0.0,0.0,0.0,0.0,0.0,0.0,0.0,0.0,0.0,0.0,0.0,0.0,0.0,0.0,0.0,0.0,0.0,0.0,0.0,0.0,0.0,0.0,0.0,0.0,0.0,0.0,0.0,0.0,0.0,0.0,0.0,0.0,0.0,0.0,0.0,0.0,0.0,0.0,0.0,0.0,0.0,0.0,0.0,0.0,0.0,0.0,0.0,0.0,0.0,0.0,0.0,0.0,0.0,0.0,0.0,0.0,0.0,0.0,0.0,0.0,0.0,0.0,0.0,0.0,0.0,0.0,0.0,0.0,0.0,0.0,0.0,0.0,0.0,0.0,0.0,0.0,0.0,0.0,0.0,0.0,0.0,0.0,0.0,0.0,0.0,0.0,0.0,0.0,0.0,0.0,0.0,0.0,0.0,0.0,0.0,0.0,0.0,0.0,0.0,0.0,0.0,0.0,0.0,0.0,0.0,0.0,0.0,0.0,0.0,0.0,0.0,0.0,0.0,0.0,0.0,0.0,0.0,0.0,0.0,0.0,0.0,0.0,0.0,0.0,0.0,0.0,0.0,0.0,0.0,0.0,0.0,0.0,0.0,0.0,0.0,0.0,0.0,0.0,0.0,0.0,0.0,0.0,0.0,0.0,0.0,0.0,0.0,0.0,0.0,0.0,0.0,0.0,0.0,0.0,0.0,0.0,0.0,0.0,0.0,0.0,0.0,0.0,0.0,0.0,0.0,0.0,0.0,0.0,0.0,0.0,0.0,0.0,0.0,0.0,0.0,0.0,0.0,0.0,0.0,0.0,0.0,0.0,0.0,0.0,0.0,0.0,0.0,0.0,0.0,0.0,0.0,0.0,0.0,0.0,0.0,0.0,0.0,0.0,0.0,0.0,0.0,0.0,0.0,0.0,0.0,0.0,0.0,0.0,0.0,0.0,0.0,0.0,0.0,0.0,0.0,0.0,0.0,0.0,0.0,0.0,0.0,0.0,0.0,0.0,0.0,0.0,0.0,0.0,0.0,0.0,0.0,0.0,0.0,0.0,0.0,0.0,0.0,0.0,0.0,0.0,0.0,0.0,0.0,0.0,0.0,0.0,0.0,0.0,0.0,0.0,0.0,0.0,0.0,0.0,0.0,0.0,0.0,0.0,0.0,0.0,0.0,0.0,0.0,0.0,0.0,0.0,0.0,0.0,0.0,0.0,0.0,0.0,0.0,0.0,0.0,0.0,0.0,0.0,0.0,0.0,0.0,0.0,0.0,0.0,0.0,0.0,0.0,0.0,0.0,0.0,0.0,0.0,0.0,0.0,0.0,0.0,0.0,0.0,0.0,0.0,0.0,0.0,0.0,0.0,0.0,0.0,0.0,0.0,0.0,0.0,0.0,0.0,0.0,0.0,0.0,0.0,0.0,0.0,0.0,0.0,0.0,0.0,0.0,0.0,0.0,0.0,0.0,0.0,0.0,0.0,0.0,0.0,0.0,0.0,0.0,0.0,0.0,0.0,0.0,0.0,0.0,0.0,0.0,0.0,0.0,0.0,0.0,0.0,0.0,0.0,0.0,0.0,0.0,0.0,0.0,0.0,0.0,0.0,0.0,0.0,0.0,0.0,0.0,0.0,0.0,0.0,0.0,0.0,0.0,0.0,0.0,0.0,0.0,0.0,0.0,0.0,0.0,0.0,0.0,0.0,0.0,0.0,0.0,0.0,0.0,0.0,0.0,0.0,0.0,0.0,0.0,0.0,0.0,0.0,0.0,0.0,0.0,0.0,0.0,0.0,0.0,0.0,0.0,0.0,0.0,0.0,0.0,0.0,0.0,0.0,0.0,0.0,0.0,0.0,0.0,0.0,0.0,0.0,0.0,0.0,0.0,0.0,0.0,0.0,0.0,0.0,0.0,0.0,0.0,0.0,0.0,0.0,0.0,0.0,0.0,0.0,0.0,0.0,0.0,0.0,0.0,0.0,0.0,0.0,0.0,0.0,0.0,0.0,0.0,0.0,0.0,0.0,0.0,0.0,0.0,0.0,0.0,0.0,0.0,0.0,0.0,0.0,0.0,0.0,0.0,0.0,0.0,0.0,0.0,0.0,0.0,0.0,0.0,0.0,0.0,0.0,0.0,0.0,0.0,0.0,0.0,0.0,0.0,0.0,0.0,0.0,0.0,0.0,0.0,0.0,0.0,0.0,0.0,0.0,0.0,0.0,0.0,0.0,0.0,0.0,0.0,0.0,0.0,0.0,0.0,0.0,0.6473,0.0,0.0,0.0,0.0,0.0,0.0,0.0,0.0,0.0,0.0,0.0,0.0,0.0,0.0,0.0,0.0,0.0,0.0,0.0,0.0,0.0,0.0,0.0,0.0,0.0,0.0,0.0,0.0,0.0,0.0,0.0,0.0,0.0,0.0,0.0,0.0,0.0,0.0,0.0,0.0,0.0,0.0,0.0,0.0,0.0,0.0,0.0,0.0,0.0,0.0,0.0,0.0,0.0,0.0,0.0,0.0,0.0,0.0,0.0,0.0,0.0,0.0,0.0,0.0,0.0,0.0,0.0,0.0,0.0,0.0,0.0,0.0,0.0,0.0,0.0,0.0,0.0,0.0,0.0,0.0,0.0,0.0,0.0,0.0,0.0,0.0,0.0,0.0,0.0,0.0,0.0,0.0,0.0,0.0,0.0,0.0,0.0,0.0,0.0,0.0,0.0,0.0,0.0,0.0,0.0,0.0,0.0,0.0,0.0,0.0,0.0,0.0,0.3735,0.0,0.0,0.0,0.0,0.0,0.0,0.0,0.0,0.0,0.0,0.0,0.0,0.0,0.0,0.0,0.0,0.0,0.0,0.0,0.0,0.0,0.0,0.0,0.0,0.0,0.0,0.0,0.0,0.0,0.0,0.0,0.0,0.0,0.0,0.0,0.0,0.0,0.0,0.0,0.0,0.0,0.0,0.0,0.0,0.0,0.0,0.0,0.0,0.0,0.0,0.0,0.0,0.0,0.0,0.0,0.0,0.0,0.0,0.0,0.0,0.0,0.0,0.0,0.0,0.0,0.0,0.0,0.0,0.0,0.0,0.0,0.0,0.0,0.0,0.0,0.0,0.0,0.0,0.0,0.0,0.0,0.0,0.0,0.0,0.0,0.0,0.0,0.0,0.0,0.0,0.0,0.0,0.0,0.0,0.0,0.0,0.0,0.0,0.0,0.0,0.0,0.0,0.0,0.0,0.0,0.0,0.3597,1.3132,1.7464,1.694,0.7417,0.3224,0.2957,0.0,0.0,0.0,0.0,0.0,0.0,0.0,0.0,0.0,0.0,0.0,0.0,0.0,0.0,0.0,0.0,0.0,0.0,0.0,0.0,0.0,0.0,0.0,0.0,0.0,0.0,0.0,0.0,0.0,0.0,0.0,0.0,0.0,0.0,0.0,0.0,0.0,0.0,0.0,0.0,0.0,0.0,0.0,0.0,0.0,0.0,0.0,0.0,0.0,0.0,0.0,0.0,0.0,0.0,0.0,0.0,0.0,0.0,0.0,0.0,0.0,0.0,0.0,0.0,0.0,0.0,0.0,0.0,0.0,0.0,0.0,0.0,0.0,0.0,0.0,0.0,0.0,0.0,0.0,0.0,0.0,0.0,0.0,0.7567,0.0799,0.0,0.0,0.0,0.0,0.0,0.0,0.0,0.0,0.0,0.0,0.0,0.0,0.0,0.0,0.0,0.9823,1.5023,1.555,1.607,1.6322,1.6393,1.842,1.9339,1.923,1.7197,0.0,1.4724,0.4302,0.0,0.0,0.0,0.0,0.0,0.0,0.0,0.0,0.0,0.0,0.0,0.0,0.0,0.0,0.0,0.0,0.0,0.0,0.0,0.0,0.0,0.0,0.0,0.0,0.0,0.0,0.0,0.0,0.0,0.0,0.0,0.0,0.0,0.0,0.0,0.0,0.0,0.0,0.0,0.0,0.0,0.0,0.0,0.0,0.0,0.0,0.0,0.0,0.0,0.0,0.0,0.0,0.0,0.0,0.0,0.0,0.0,0.0,0.0,0.0,0.0,0.0,0.0,0.0,0.0,0.0,0.0,0.0,0.0,0.0,0.0,0.0,0.0,0.0,0.0,0.0,0.0,0.0,0.0,0.0,0.0,0.974,1.1598,1.0223,0.8259,0.5177,0.0,0.0,0.0,0.0,0.0,0.0,0.0,0.0,0.0,1.0059,1.0387,1.0565,1.0569,1.5853,1.8656,1.8923,1.9495,1.9758,1.9758,1.9866,1.9926,1.9894,1.9486,1.9163,1.8457,1.2506,1.0062,0.9728,0.0,0.0,0.0,0.0,0.0,0.0,0.0,0.0,0.0,0.0,0.0,0.0,0.0,0.0,0.0,0.0,0.0,0.0,0.0,0.0,0.0,0.0,0.0,0.0,0.0,0.0,0.0,0.0,0.0,0.0,0.0,0.0,0.0,0.0,0.0,0.0,0.0,0.0,0.0,0.0,0.0,0.0,0.0,0.0,0.0,0.0,0.0,0.0,0.0,0.0,0.0,0.0,0.0,0.0,0.0,0.0,0.0,0.0,0.0,0.0,0.0,0.0,0.0,0.0,0.0,0.0,0.0,0.0,0.0,0.0,0.0,0.0,0.0,0.0,0.0,0.0,0.0,0.0,0.0,1.1651,1.4649,1.6721,1.345,0.8689,0.0,0.0,0.0,0.0,0.0,0.0,0.4576,1.2778,1.7805,1.8531,1.8996,1.9232,1.9241,1.9676,1.99,1.9906,2.0302,2.0491,2.0497,2.0238,2.0131,2.0116,1.9914,1.9809,1.9681,1.8579,1.8039,1.7455,1.2956,0.0,0.0,0.0,0.0,0.0,0.0,0.0,0.0,0.0,0.0,0.0,0.0,0.0,0.0,0.0,0.0,0.0,0.0,0.0,0.0,0.0,0.0,0.0,0.0,0.0,0.0,0.0,0.0,0.0,0.0,0.0,0.0,0.0,0.0,0.0,0.0,0.0,0.0,0.0,0.0,0.0,0.0,0.0,0.0,0.0,0.0,0.0,0.0,0.0,0.0,0.0,0.0,0.0,0.0,0.0,0.0,0.0,0.0,0.0,0.0,0.0,0.0,0.0,0.0,0.0,0.0,0.0,0.0,0.0,0.0,0.0,0.0,0.0,0.0,0.0,0.0,0.0,0.0,0.0,0.0,1.4728,1.0055,0.0,0.0,0.0,0.0,1.6137,1.6297,1.6403,1.6981,1.8087,1.922,2.0328,2.0412,2.0413,2.0418,2.0432,2.0468,2.0468,2.0482,2.0497,2.048,2.0294,2.02,2.02,2.0173,2.0107,1.992,1.9085,1.8419,1.7868,1.7566,1.7267,1.5617,0.4203,0.0,0.0,0.0,0.0,0.0,0.0,0.0,0.0,0.0,0.0,0.0,0.0,0.0,0.0,0.0,0.0,0.0,0.0,0.0,0.0,0.0,0.0,0.0,0.0,0.0,0.0,0.0,0.0,0.0,0.0,0.0,0.0,0.0,0.0,0.0,0.0,0.0,0.0,0.0,0.0,0.0,0.0,0.0,0.0,0.0,0.0,0.0,0.0,0.0,0.0,0.0,0.0,0.0,0.0,0.0,0.0,0.0,0.0,0.0,0.0,0.0,0.0,0.0,0.0,0.0,0.0,0.0,0.0,0.0,0.0,0.0,0.0,0.0,0.0,0.0,0.0,0.0,1.6531,1.4782,0.0,0.0,1.4556,1.6173,1.8693,1.8784,1.8904,1.9305,1.9511,1.99,2.0483,2.0504,2.0497,2.0499,2.0329,2.0233,2.0241,2.0206,2.0222,2.0303,2.0272,2.0381,2.0573,2.0367,2.0297,2.027,1.9726,1.918,1.8642,1.8292,1.6551,1.3531,0.7827,0.3291,0.0,0.0,0.0,0.0,0.0,0.0,0.0,0.0,0.0,0.0,0.0,0.0,0.0,0.0,0.0,0.0,0.0,0.0,0.0,0.0,0.0,0.0,0.0,0.0,0.0,0.0,0.0,0.0,0.0,0.0,0.0,0.0,0.0,0.0,0.0,0.0,0.0,0.0,0.0,0.0,0.0,0.0,0.0,0.0,0.0,0.0,0.0,0.0,0.0,0.0,0.0,0.0,0.0,0.0,0.0,0.0,0.0,0.0,0.0,0.0,0.0,0.0,0.0,0.0,0.0,0.0,0.0,0.0,0.0,0.0,0.0,0.0,0.0,0.0,0.0,1.3704,1.76,1.7476,1.706,1.704,1.7754,1.8607,1.9532,1.972,1.9882,2.0057,2.0168,2.0328,2.05,2.0431,2.0414,2.043,2.0219,2.0098,2.0098,2.0052,2.0068,2.016,2.0318,2.0496,2.0689,2.0453,2.0426,2.048,2.001,1.9621,1.9242,1.8756,1.6875,1.4247,1.2772,0.7049,0.0,0.0,0.0,0.0,0.0,0.0,0.0,0.0,0.0,0.0,0.0,0.0,0.0,0.0,0.0,0.0,0.0,0.0,0.0,0.0,0.0,0.0,0.0,0.0,0.0,0.0,0.0,0.0,0.0,0.0,0.0,0.0,0.0,0.0,0.0,0.0,0.0,0.0,0.0,0.0,0.0,0.0,0.0,0.0,0.0,0.0,0.0,0.0,0.0,0.0,0.0,0.0,0.0,0.0,0.0,0.0,0.0,0.0,0.0,0.0,0.0,0.0,0.0,0.0,0.0,0.0,0.0,0.0,0.0,0.0,0.0,0.0,0.0,1.5647,1.6942,1.7811,1.7618,1.7401,1.7514,1.8097,1.8152,1.8518,1.937,1.98,2.0011,2.0011,2.0313,2.0493,2.0493,2.0304,2.0228,2.032,2.0157,2.0105,2.0103,2.0105,2.0105,2.0119,2.0388,2.0492,2.0521,2.0492,2.0508,2.048,1.9944,1.973,1.9673,1.9263,1.8973,1.8818,1.8818,1.095,0.029,0.0288,0.0288,0.0258,0.0071,0.0,0.0,0.0,0.0,0.0,0.0,0.0,0.0,0.0,0.0,0.0,0.0,0.0,0.0,0.0,0.0,0.0,0.0,0.0,0.0,0.0,0.0,0.0,0.0,0.0,0.0,0.0,0.0,0.0,0.0,0.0,0.0,0.0,0.0,0.0,0.0,0.0,0.0,0.0,0.0,0.0,0.0,0.0,0.0,0.0,0.0,0.0,0.0,0.0,0.0,0.0,0.0,0.0,0.0,0.0,0.0,0.0,0.0,0.0,0.0,0.0,0.0,0.0,0.0,0.0,0.0,0.0,1.6218,1.6378,1.7063,1.7558,1.7604,1.8443,1.9076,1.9238,1.9442,1.9698,2.0035,2.0239,2.0363,2.0363,2.0447,2.0447,2.0367,2.0212,2.0223,2.0437,2.0119,2.0105,2.0386,2.0078,2.0066,2.025,2.0318,2.0537,2.0849,2.0618,2.0629,2.0822,2.0442,2.0173,1.9944,1.9392,1.9148,1.9079,1.9032,1.3842,0.6817,0.6821,0.682,0.6069,0.1487,0.0,0.0,0.0,0.0,0.0,0.0,0.0,0.0,0.0,0.0,0.0,0.0,0.0,0.0,0.0,0.0,0.0,0.0,0.0,0.0,0.0,0.0,0.0,0.0,0.0,0.0,0.0,0.0,0.0,0.0,0.0,0.0,0.0,0.0,0.0,0.0,0.0,0.0,0.0,0.0,0.0,0.0,0.0,0.0,0.0,0.0,0.0,0.0,0.0,0.0,0.0,0.0,0.0,0.0,0.0,0.0,0.0,0.0,0.0,0.0,0.0,0.0,0.0,0.0,0.0,0.0,1.664,1.7238,1.7543,1.7702,1.7948,1.8408,1.9128,1.9727,2.0109,2.0227,2.0388,2.0673,2.07,2.0697,2.0697,2.0697,2.067,2.0591,2.0458,2.0431,2.0492,2.0212,2.0159,2.0334,2.0105,2.0064,2.0225,2.0331,2.0521,0.0,2.0575,2.0616,2.0767,2.0453,2.0239,0.0,0.0,0.0,0.0,0.0,1.6823,1.3571,1.3395,1.3333,1.2732,0.9066,0.609,0.3445,0.0796,0.0,0.0,0.0,0.0,0.0,0.0,0.0,0.0,0.0,0.0,0.0,0.0,0.0,0.0,0.0,0.0,0.0,0.0,0.0,0.0,0.0,0.0,0.0,0.0,0.0,0.0,0.0,0.0,0.0,0.0,0.0,0.0,0.0,0.0,0.0,0.0,0.0,0.0,0.0,0.0,0.0,0.0,0.0,0.0,0.0,0.0,0.0,0.0,0.0,0.0,0.0,0.0,0.0,0.0,0.0,0.0,0.0,0.0,0.0,0.0,0.0,0.0,0.0,1.7677,1.8518,1.8874,1.8654,1.8762,1.9566,1.9574,1.9859,2.0677,2.0648,2.074,2.1147,2.1066,2.1014,2.1001,0.0,0.0,0.0,0.0,2.0661,2.0492,2.0345,2.0239,2.0189,2.0132,2.0132,2.0159,2.0386,2.0505,2.0521,2.0508,2.0505,2.0508,2.0239,2.0132,2.0119,2.0121,1.9861,1.948,1.9461,1.9451,0.0,0.0,0.0,0.0,1.8817,1.5018,0.9415,0.3819,0.1133,0.0,0.0,0.0,0.0,0.0,0.0,0.0,0.0,0.0,0.0,0.0,0.0,0.0,0.0,0.0,0.0,0.0,0.0,0.0,0.0,0.0,0.0,0.0,0.0,0.0,0.0,0.0,0.0,0.0,0.0,0.0,0.0,0.0,0.0,0.0,0.0,0.0,0.0,0.0,0.0,0.0,0.0,0.0,0.0,0.0,0.0,0.0,0.0,0.0,0.0,0.0,0.0,0.0,0.0,0.0,0.0,0.0,0.0,0.0,0.0,0.0,1.7161,1.8165,1.9062,1.9605,1.9538,1.9443,1.9468,1.9952,2.0356,2.0548,2.0767,2.0946,2.1041,2.1106,2.1106,2.1017,2.1001,0.0,2.0618,2.0469,2.0442,2.0492,2.0266,2.0309,2.0666,0.0,0.0,2.0426,2.0478,2.0591,2.0732,2.0562,2.0591,2.0732,2.051,2.0361,2.025,2.0144,2.0035,1.994,1.9837,1.973,1.9606,1.9367,1.9184,1.9017,1.8851,1.7983,1.6745,1.5533,0.8061,0.0,0.0,0.0,0.0,0.0,0.0,0.0,0.0,0.0,0.0,0.0,0.0,0.0,0.0,0.0,0.0,0.0,0.0,0.0,0.0,0.0,0.0,0.0,0.0,0.0,0.0,0.0,0.0,0.0,0.0,0.0,0.0,0.0,0.0,0.0,0.0,0.0,0.0,0.0,0.0,0.0,0.0,0.0,0.0,0.0,0.0,0.0,0.0,0.0,0.0,0.0,0.0,0.0,0.0,0.0,0.0,0.0,1.4878,1.5627,0.0,1.7351,1.8259,1.8993,1.9605,2.0053,2.0105,2.0064,1.9966,2.0277,2.0602,2.0833,2.0998,2.112,2.1201,2.1269,2.1266,2.1198,2.1198,2.109,2.0862,2.0795,2.0713,2.0645,2.0528,2.0528,2.0648,2.048,2.0521,2.0738,2.0575,2.0645,2.0895,2.0616,2.0564,2.0648,2.0548,2.0465,2.0383,2.0334,2.0227,2.0078,1.996,1.9866,1.9756,1.948,1.934,1.9214,1.9056,1.897,1.8338,1.5084,1.1904,0.8095,0.1774,0.0,0.0,0.0,0.0,0.0,0.0,0.0,0.0,0.0,0.0,0.0,0.0,0.0,0.0,0.0,0.0,0.0,0.0,0.0,0.0,0.0,0.0,0.0,0.0,0.0,0.0,0.0,0.0,0.0,0.0,0.0,0.0,0.0,0.0,0.0,0.0,0.0,0.0,0.0,0.0,0.0,0.0,0.0,0.0,0.0,0.0,0.0,0.0,0.0,0.0,0.0,0.0,1.4909,1.5159,1.5628,1.6278,1.7242,1.7758,1.8353,1.9397,1.9818,2.0121,2.0401,2.0521,2.0591,2.0562,2.0602,2.0778,2.1161,2.1212,2.1283,2.1388,2.1442,2.1456,2.1456,2.1456,2.1374,2.1218,2.1177,2.1041,2.0743,2.0732,2.0661,2.0492,2.0492,2.0629,2.0889,2.0673,2.07,2.0946,2.0686,2.0548,2.0492,2.0492,2.0492,2.0492,2.0492,2.0372,2.0157,2.0026,1.9958,1.9905,1.9603,1.948,1.9439,1.9282,1.9179,1.7672,0.9916,1.1123,1.303,0.2851,0.0,0.0,0.0,0.0,0.0,0.0,0.0,0.0,0.0,0.0,0.0,0.0,0.0,0.0,0.0,0.0,0.0,0.0,0.0,0.0,0.0,0.0,0.0,0.0,0.0,0.0,0.0,0.0,0.0,0.0,0.0,0.0,0.0,0.0,0.0,0.0,0.0,0.0,0.0,0.0,0.0,0.0,0.0,0.0,1.2388,1.2533,1.3139,1.341,1.3908,1.4586,0.0,0.0,1.6768,1.704,1.7989,1.8803,1.894,1.9238,1.9618,2.0117,2.0331,2.0548,2.0878,2.093,2.0892,2.0788,2.0987,2.1147,2.1201,2.1307,2.1371,2.1401,2.157,2.1668,2.1668,2.1668,2.1516,2.1215,2.1066,2.0878,2.0548,2.0521,2.0521,2.0492,2.0492,2.0521,2.0562,2.0702,2.0786,2.0816,2.0788,2.0661,2.0492,2.0492,2.0492,2.0492,2.0492,2.0478,2.044,2.0304,2.0171,2.0066,1.9903,1.9766,1.963,1.9447,1.9293,1.6928,0.4743,0.1551,0.1809,0.0402,0.0,0.0,0.0,0.0,0.0,0.0,0.0,0.0,0.0,0.0,0.0,0.0,0.0,0.0,0.0,0.0,0.0,0.0,0.0,0.0,0.0,0.0,0.0,0.0,0.0,0.0,0.0,0.0,0.0,0.0,0.0,0.0,0.0,0.0,0.0,0.0,0.0,0.0,0.0,0.0,0.0,0.0,0.0,0.0,1.358,1.3661,1.4095,0.0,1.5863,1.6539,1.746,1.7922,1.8247,1.8517,1.9061,1.9498,1.9498,1.9795,2.0103,0.0,2.051,2.0756,2.096,2.1001,2.0987,2.0919,2.1066,2.1177,2.1082,2.1394,2.1567,2.1567,2.1723,2.1818,2.1818,2.1818,2.1652,2.1337,2.119,2.0971,2.0689,2.0562,2.0492,2.0492,2.0492,2.0641,2.09,2.0824,2.0802,2.0802,2.0802,2.0689,2.0508,2.0634,2.0618,2.0505,2.0632,2.0591,2.0478,2.0345,2.0264,2.0171,1.9892,1.9741,1.9661,1.9368,1.9212,1.8149,1.2742,0.8477,0.554,0.5901,0.5741,0.4628,0.0954,0.0,0.0,0.0,0.0,0.0,0.0,0.0,0.0,0.0,0.0,0.0,0.0,0.0,0.0,0.0,0.0,0.0,0.0,0.0,0.0,0.0,0.0,0.0,0.0,0.0,0.0,0.0,0.0,0.0,0.0,0.0,0.0,0.0,0.0,0.0,0.0,0.0,0.0,0.0,0.0,0.0,1.4326,1.4733,0.0,1.6634,1.7528,1.8273,1.8954,1.9212,1.9359,1.9561,1.9766,1.9903,1.9876,2.0132,2.0372,2.0442,2.0661,2.0895,2.0987,2.1001,2.0946,2.0824,2.093,2.0971,2.0878,2.1313,2.1641,2.1699,2.1818,2.1913,2.1954,2.195,2.1828,2.1554,2.135,2.1147,2.0908,2.0729,2.0629,2.0629,2.0629,2.0822,2.1136,2.0976,2.0908,2.0908,2.0908,2.0811,2.0657,2.08,2.077,2.0657,2.08,2.0743,2.0562,2.0469,2.0388,2.0266,1.9971,1.9797,1.9661,1.9345,1.9177,1.908,1.9028,1.5723,1.2097,1.2601,1.2613,1.1362,0.6543,0.4002,0.2247,0.0425,0.0,0.0,0.0,0.0,0.0,0.0,0.0,0.0,0.0,0.0,0.0,0.0,0.0,0.0,0.0,0.0,0.0,0.0,0.0,0.0,0.0,0.0,0.0,0.0,0.0,0.0,0.0,0.0,0.0,0.0,0.0,0.0,0.0,0.0,0.0,0.0,0.0,0.0,1.4185,0.0,1.7188,1.75,1.8475,1.9437,1.9797,1.9971,2.0064,2.0078,2.0293,2.044,2.032,2.0399,2.0564,2.0759,2.0892,2.1001,2.1001,2.1001,2.0822,2.0388,2.044,2.0521,0.0,2.1049,2.1499,2.1685,2.1818,2.195,2.2099,2.2096,2.2018,2.1882,2.1567,2.1337,2.119,2.1055,2.0987,2.0987,2.0987,2.0984,2.1014,2.112,2.119,2.119,2.119,2.1106,2.0987,2.0987,2.0987,2.0987,2.0984,2.0908,2.0786,2.0788,2.058,2.0304,2.0293,2.0037,1.9674,1.9451,1.9222,1.8979,1.8856,1.867,1.8565,1.8854,1.9521,1.9929,1.8898,1.408,0.7891,0.152,0.0,0.0,0.0,0.0,0.0,0.0,0.0,0.0,0.0,0.0,0.0,0.0,0.0,0.0,0.0,0.0,0.0,0.0,0.0,0.0,0.0,0.0,0.0,0.0,0.0,0.0,0.0,0.0,0.0,0.0,0.0,0.0,0.0,0.0,0.0,0.0,0.0,0.0,1.6065,1.7324,1.8437,1.9208,1.9859,2.0433,2.0808,2.0616,2.0401,2.0542,1.9997,1.9468,1.9332,1.9413,1.9549,1.9712,2.0363,2.087,2.087,2.1014,2.093,2.0372,2.0618,0.0,0.0,0.0,0.0,2.1499,2.1825,2.2004,2.1964,2.214,2.2123,2.1916,2.1709,2.1475,2.1201,2.1068,2.1001,2.1001,2.1082,2.112,2.1136,2.1266,2.1283,2.1201,2.1201,2.1123,2.1017,2.1109,2.1066,2.1014,2.1109,2.1003,2.0802,2.0802,2.0596,2.0264,2.0105,1.996,1.9756,1.9291,1.9059,1.8993,1.8952,1.8938,1.9021,1.9431,1.9581,1.9673,1.981,1.7962,1.5529,1.3529,0.6382,0.0,0.0,0.0,0.0,0.0,0.0,0.0,0.0,0.0,0.0,0.0,0.0,0.0,0.0,0.0,0.0,0.0,0.0,0.0,0.0,0.0,0.0,0.0,0.0,0.0,0.0,0.0,0.0,0.0,0.0,0.0,0.0,0.0,0.0,0.0,0.0,0.0,1.7609,1.8763,1.97,2.051,2.0946,2.1223,2.1307,2.0982,2.0645,2.0582,1.963,1.8776,1.8654,1.8478,1.8505,1.8979,1.9768,2.039,2.0664,2.0987,2.1025,2.0539,2.0743,2.0824,0.0,0.0,0.0,2.132,2.1757,2.1991,2.1899,2.2146,2.2214,2.2059,2.1859,2.1668,2.1445,2.1242,2.1147,2.1147,2.1228,2.1266,2.1266,2.1361,2.1361,2.1266,2.1266,2.1212,2.1147,2.1242,2.1212,2.1147,2.1242,2.1136,2.0935,2.0843,2.0607,2.0331,2.0119,1.9971,1.9837,1.9388,1.9197,1.9128,1.9089,1.9075,1.9143,1.9481,1.9481,1.9483,1.9902,1.9752,1.9508,1.9676,1.3221,0.5747,0.1012,0.0,0.0,0.0,0.0,0.0,0.0,0.0,0.0,0.0,0.0,0.0,0.0,0.0,0.0,0.0,0.0,0.0,0.0,0.0,0.0,0.0,0.0,0.0,0.0,0.0,0.0,0.0,0.0,0.0,0.0,0.0,0.0,0.0,0.0,0.0,1.8737,1.9849,2.0949,2.1334,2.1649,2.1777,2.1313,2.1066,2.0783,2.0187,1.9181,1.8367,0.0,0.0,1.7528,1.8588,1.9156,1.9695,2.0399,2.0914,2.112,0.0,0.0,0.0,0.0,0.0,0.0,2.1215,0.0,2.1899,2.1899,2.2164,2.2309,2.2309,2.2059,2.1916,2.1899,2.1567,2.1401,2.1401,2.1401,2.1401,2.1401,2.1401,2.1401,2.1401,2.1401,2.1401,2.1401,2.1401,2.1401,2.1388,2.1401,2.1307,2.1147,2.0895,2.0661,2.0465,2.0334,2.0103,1.9892,1.9729,1.9549,1.9385,1.925,1.9208,1.9237,1.9385,1.9549,1.97,1.9696,1.9665,1.9574,1.9275,1.8941,1.5258,0.2699,0.0,0.0,0.0,0.0,0.0,0.0,0.0,0.0,0.0,0.0,0.0,0.0,0.0,0.0,0.0,0.0,0.0,0.0,0.0,0.0,0.0,0.0,0.0,0.0,0.0,0.0,0.0,0.0,0.0,0.0,0.0,0.0,0.0,0.0,0.0,2.0229,2.1017,2.1546,2.1852,2.1845,2.1682,2.1401,2.09,2.032,1.9695,1.8205,1.708,0.0,0.0,0.0,1.8125,1.9358,0.0,2.048,2.1218,0.0,2.1136,0.0,2.153,2.132,2.1421,0.0,0.0,2.1777,2.1899,2.1899,2.231,2.2452,2.2309,2.214,2.2004,2.1899,2.1567,2.1401,2.1401,2.1401,2.1401,2.1401,2.1401,2.1401,2.1401,2.1401,2.1401,2.1401,2.1401,2.1334,2.1269,2.1361,2.1201,2.0895,2.0827,2.0539,2.0171,2.0051,1.9958,1.9849,1.9576,1.9437,1.9382,1.9358,1.9343,1.9383,1.9564,1.9661,1.9703,1.97,1.7282,1.4424,1.2729,0.8581,0.4094,0.0725,0.0,0.0,0.0,0.0,0.0,0.0,0.0,0.0,0.0,0.0,0.0,0.0,0.0,0.0,0.0,0.0,0.0,0.0,0.0,0.0,0.0,0.0,0.0,0.0,0.0,0.0,0.0,0.0,0.0,0.0,0.0,0.0,0.0,0.0,0.0,2.1377,2.1937,2.2212,2.2374,2.2089,2.1546,2.0629,1.9952,1.9153,1.7907,1.6579,0.0,1.6143,1.5996,1.6296,0.0,0.0,0.0,2.0629,2.1408,2.1787,0.0,2.1787,0.0,2.1808,2.1842,2.195,0.0,2.2113,2.2072,2.2072,2.2469,2.2605,2.2452,2.2221,2.1947,2.1692,2.1496,2.1401,2.1401,2.1401,2.1401,2.1401,2.1401,2.1401,2.1401,0.0,2.1401,2.1401,2.1334,2.1269,2.1218,2.1283,2.1136,2.0881,2.0716,2.0456,2.0159,1.9905,1.981,1.9783,1.959,1.9576,1.9603,1.9549,1.9535,1.9549,1.9674,1.9742,1.9797,1.981,1.7997,1.5782,1.4457,0.6895,0.0,0.0,0.0,0.0,0.0,0.0,0.0,0.0,0.0,0.0,0.0,0.0,0.0,0.0,0.0,0.0,0.0,0.0,0.0,0.0,0.0,0.0,0.0,0.0,0.0,0.0,0.0,0.0,0.0,0.0,0.0,0.0,0.0,0.0,0.0,0.0,0.0,2.2218,2.2547,2.2723,2.2723,2.2252,2.1313,1.9576,1.8734,1.7758,1.5752,0.0,1.4559,1.5152,1.502,1.5523,1.7691,0.0,1.9591,2.0838,2.1543,2.1954,2.2008,2.2144,2.2286,2.2431,2.2326,2.2408,2.2818,2.2584,2.2386,2.2381,2.2656,2.2741,2.2568,2.2235,2.1865,2.1401,2.1401,2.1401,2.1401,2.1429,2.1442,2.1442,2.1456,2.1456,2.1442,0.0,0.0,2.1388,2.1266,2.1215,2.1201,2.1215,2.112,2.096,2.0657,2.0453,2.0264,1.989,1.9742,1.9742,1.9715,1.9797,1.9905,1.9769,1.9742,1.9783,1.9756,1.9837,1.9944,2.0028,2.0031,1.9977,1.9772,1.0963,0.2616,0.2615,0.1243,0.0,0.0,0.0,0.0,0.0,0.0,0.0,0.0,0.0,0.0,0.0,0.0,0.0,0.0,0.0,0.0,0.0,0.0,0.0,0.0,0.0,0.0,0.0,0.0,0.0,0.0,0.0,0.0,0.0,0.0,0.0,0.0,0.0,0.0,2.2592,2.2557,2.2394,2.2394,2.1774,2.0786,1.9359,1.8192,0.0,0.0,1.4367,1.4128,1.532,1.5484,1.6187,1.8437,1.9428,2.02,2.1055,2.1692,2.2221,0.0,2.2764,2.2936,2.3185,0.0,0.0,0.0,0.0,0.0,2.2727,2.2873,2.2778,2.2381,2.2072,2.176,2.1401,2.1401,2.1401,2.1401,2.157,2.1655,2.1655,2.176,2.1763,2.1655,0.0,0.0,2.1401,2.1374,2.1296,2.1215,2.132,2.1215,2.0987,2.0811,2.0634,2.0426,2.0132,2.0037,1.9999,1.9768,1.9865,2.0053,1.9903,2.001,2.0171,2.0064,2.0051,2.009,2.0227,2.0171,2.0056,1.9977,1.8069,1.628,1.6276,0.7705,0.0,0.0,0.0,0.0,0.0,0.0,0.0,0.0,0.0,0.0,0.0,0.0,0.0,0.0,0.0,0.0,0.0,0.0,0.0,0.0,0.0,0.0,0.0,0.0,0.0,0.0,0.0,0.0,0.0,0.0,0.0,0.0,0.0,0.0,2.2822,2.2669,2.2425,2.2323,2.151,2.0225,1.8246,0.0,0.0,1.3648,1.3064,1.3227,1.4166,1.4667,1.5481,1.7215,1.8057,1.8952,2.0336,2.0944,2.1621,2.2582,2.294,2.318,0.0,2.3438,0.0,0.0,0.0,0.0,2.3022,2.2991,2.2787,2.2305,2.2113,2.1811,2.1401,2.1401,2.1401,2.1401,2.1597,2.1699,2.1699,2.1848,2.1859,2.1791,0.0,0.0,0.0,2.1377,2.1269,2.1218,2.1266,2.1174,2.0987,2.0935,2.0729,2.048,2.0264,2.0157,2.0078,1.9942,1.9999,2.0078,2.001,2.009,2.0171,2.0119,2.0159,2.0225,2.0277,2.0304,2.0262,2.0145,1.9903,1.9699,1.9701,1.4939,1.059,1.0308,0.4693,0.228,0.9427,0.4735,0.0,0.0,0.0,0.0,0.0,0.0,0.0,0.0,0.0,0.0,0.0,0.0,0.0,0.0,0.0,0.0,0.0,0.0,0.0,0.0,0.0,0.0,0.0,0.0,0.0,0.0,0.0,0.0,2.2747,2.2727,2.2514,2.2187,2.1252,1.9749,1.723,1.5929,1.4586,1.22,1.1993,1.2459,1.3125,1.3756,1.4638,1.598,1.6618,1.7636,1.962,2.0227,2.0998,2.246,2.2981,0.0,2.3542,2.3709,0.0,0.0,0.0,0.0,0.0,2.3045,2.2805,2.2435,2.2221,2.192,2.155,2.151,2.1513,2.1513,2.1709,2.1794,2.1791,2.1923,2.1964,2.194,0.0,0.0,0.0,2.1367,2.1242,2.1242,2.1242,2.1174,2.1066,2.1014,2.0822,2.0575,2.0399,2.0264,2.0187,2.0187,2.0187,2.0187,2.0187,2.0227,2.0241,2.0241,2.0293,2.0345,2.0401,2.0453,2.0465,2.0309,1.9988,1.9738,1.9852,2.0194,2.0382,1.9961,1.149,0.7829,1.8629,1.1544,0.3398,0.0446,0.0,0.0,0.0,0.0,0.0,0.0,0.0,0.0,0.0,0.0,0.0,0.0,0.0,0.0,0.0,0.0,0.0,0.0,0.0,0.0,0.0,0.0,0.0,0.0,0.0,0.0,2.2177,2.2479,2.2415,2.1676,2.0808,1.9508,1.7067,0.0,1.425,1.2428,1.2098,1.2374,1.3224,1.364,1.4415,1.6186,1.6607,1.7473,1.9606,2.0144,2.093,2.2592,2.3022,2.342,2.398,2.4151,0.0,0.0,0.0,0.0,0.0,2.2954,2.2795,2.2768,2.2316,2.2082,2.2042,2.1923,2.1842,2.1859,2.2004,2.2055,2.2072,2.2201,2.2204,2.2072,0.0,0.0,0.0,2.1472,2.1371,2.1371,2.1371,2.1374,2.1334,2.1093,2.0987,2.0906,2.0602,2.048,2.0465,2.0465,2.0465,2.0465,2.0465,2.0594,2.0732,2.0732,2.0607,2.0521,2.0718,2.0634,2.0492,2.0478,2.0089,1.983,2.0318,2.0468,2.0495,2.0444,1.945,1.9023,2.0288,1.9446,1.4383,0.1872,0.0,0.0,0.0,0.0,0.0,0.0,0.0,0.0,0.0,0.0,0.0,0.0,0.0,0.0,0.0,0.0,0.0,0.0,0.0,0.0,0.0,0.0,0.0,0.0,0.0,0.0,2.2011,2.2353,2.2259,2.1564,2.0806,1.9561,1.6972,1.5657,1.4448,1.2496,1.217,1.2324,1.2671,1.2959,1.3478,1.4478,1.4751,1.5672,1.8057,1.8734,1.9791,2.2008,2.2673,2.3225,0.0,0.0,0.0,0.0,0.0,0.0,0.0,2.3253,2.2972,2.2813,2.2537,2.2307,2.2096,2.1967,2.1899,2.1899,2.2045,2.2096,2.2096,2.2241,2.2231,0.0,0.0,0.0,0.0,2.1483,2.1401,2.1401,2.1401,2.1401,2.1401,2.1424,2.1337,2.1242,2.1231,2.1147,2.1036,2.0955,2.0984,2.0965,2.0616,2.07,2.0878,2.0689,2.0648,2.0661,2.0632,2.0562,2.0492,2.0492,2.0334,2.0232,2.0446,2.0505,2.0498,2.0492,2.0498,2.0493,2.0507,2.0489,1.8631,1.3149,1.2332,0.9358,0.106,0.0,0.0,0.0,0.0,0.0,0.0,0.0,0.0,0.0,0.0,0.0,0.0,0.0,0.0,0.0,0.0,0.0,0.0,0.0,0.0,0.0,0.0,0.0,2.1496,2.197,2.1903,2.1361,2.0523,1.9237,1.6836,1.5573,1.4362,1.2527,1.2228,1.2301,1.2301,1.2494,1.2787,1.3254,1.3678,1.4656,1.6728,1.7609,1.8777,2.0748,2.1652,2.2452,0.0,0.0,0.0,0.0,0.0,0.0,0.0,2.3551,2.3253,2.3067,2.2836,2.2605,2.2371,2.2123,2.2018,2.2018,2.2109,2.2164,2.2164,2.2255,2.2231,0.0,0.0,0.0,0.0,2.1445,2.1334,2.1334,2.1307,2.128,2.1307,2.1492,2.1462,2.1377,2.1543,2.1489,2.1337,2.1228,2.128,2.1304,2.0808,2.0808,2.096,2.0751,2.07,2.0689,2.0618,2.0591,2.0591,2.0629,2.0563,2.0499,2.0499,2.0499,2.0499,2.0499,2.0513,2.0564,2.0741,2.0765,2.0765,2.0765,2.0769,1.7268,0.7576,0.6329,0.6332,0.6338,0.2534,0.0,0.0,0.0,0.0,0.0,0.0,0.0,0.0,0.0,0.0,0.0,0.0,0.0,0.0,0.0,0.0,0.0,0.0,0.0,2.0485,2.1215,2.1307,2.0908,1.9797,1.837,1.6674,1.5153,1.3774,1.2545,1.2301,1.2301,1.2301,1.2413,1.2667,1.3135,1.4044,1.5022,1.598,1.7147,1.8139,1.875,1.9834,2.0938,2.2001,0.0,0.0,0.0,0.0,0.0,0.0,0.0,2.3687,2.3678,2.3239,2.2991,2.2995,2.253,2.2309,2.2309,2.2309,2.2309,2.2309,2.2309,0.0,0.0,0.0,0.0,0.0,2.134,2.1201,2.119,2.1055,2.1001,2.1014,2.1163,2.1201,2.1215,2.1361,2.1307,2.1201,2.1201,2.128,2.1361,2.1066,2.1001,2.1041,2.1163,2.086,2.0548,2.0759,2.0802,2.0827,2.096,2.0727,2.05,2.05,2.05,2.05,2.05,2.05,2.0679,2.129,2.1388,2.1388,2.1388,2.1383,2.1341,2.1206,2.1189,2.1179,2.1183,0.8468,0.0,0.0,0.0,0.0,0.0,0.0,0.0,0.0,0.0,0.0,0.0,0.0,0.0,0.0,0.0,0.0,0.0,0.0,0.0,1.8219,1.8829,1.8979,1.8248,1.7704,1.6945,1.5304,1.457,1.3892,1.2694,1.245,1.245,1.245,1.2467,1.2956,1.4337,1.4758,1.5384,1.6782,1.7582,1.822,1.8737,2.0732,2.2537,0.0,0.0,0.0,0.0,0.0,0.0,0.0,0.0,2.398,2.3719,2.3411,2.3189,2.2991,2.2764,2.2534,2.2309,2.2309,2.2309,2.2309,2.2309,0.0,0.0,0.0,0.0,0.0,2.1374,2.1228,2.1068,2.1123,2.1201,2.1296,2.1475,2.1652,2.1825,2.197,2.1984,2.1916,2.1747,2.1774,2.1825,2.156,2.1313,2.112,2.1066,2.0795,2.0602,2.0971,2.1046,2.102,2.1071,2.1082,2.1114,2.1114,2.1114,2.112,2.111,2.1116,2.1183,2.1379,2.1393,2.1397,2.1397,2.1394,2.1397,2.1405,2.1763,2.2025,2.2013,1.7569,1.0649,0.0831,0.0,0.0,0.0,0.0,0.0,0.0,0.0,0.0,0.0,0.0,0.0,0.0,0.0,0.0,0.0,0.0,0.0,1.6592,1.7243,1.7365,1.6822,1.6374,1.5753,1.4627,1.4082,1.3563,1.2684,1.2508,1.2508,1.2508,1.2508,1.2901,1.4171,1.4917,1.5573,1.6281,1.7338,1.8301,1.905,0.0,0.0,0.0,0.0,0.0,0.0,0.0,0.0,0.0,0.0,2.44,2.4058,2.37,2.3438,2.3271,2.2958,2.2696,2.2475,2.2363,2.2309,2.2309,0.0,0.0,0.0,0.0,0.0,0.0,2.1527,2.1405,2.1258,2.1269,2.1337,2.1429,2.1682,2.1886,2.2059,2.2241,2.2268,2.2187,2.1964,2.1869,2.1798,2.1587,2.1408,2.1242,2.1055,2.0849,2.0767,2.1106,2.1166,2.1149,2.1204,2.1423,2.1576,2.1434,2.1568,2.1729,2.1745,2.1922,2.2076,2.2076,2.1705,2.1414,2.1414,2.1789,2.2072,2.2073,2.2414,2.2638,2.2636,2.2311,1.8452,0.9505,0.3366,0.0,0.0,0.0,0.0,0.0,0.0,0.0,0.0,0.0,0.0,0.0,0.0,0.0,0.0,0.0,0.0,0.0,1.6118,1.6214,1.6187,1.5493,1.4742,1.4421,1.3642,0.0,1.2572,1.2508,1.2508,1.2535,1.2522,1.2667,1.3095,1.4726,1.568,1.4929,1.6619,0.0,0.0,2.0664,0.0,0.0,0.0,0.0,0.0,0.0,0.0,0.0,0.0,0.0,2.462,2.4031,2.3719,2.3705,2.3121,2.2822,2.2795,2.2462,2.2309,2.2309,0.0,0.0,0.0,0.0,0.0,0.0,2.178,2.1699,2.1655,2.1499,2.1429,2.1483,2.1791,2.1916,2.1954,2.2218,2.2218,2.2055,2.194,2.1665,2.1374,2.1242,2.128,2.1334,2.1066,2.1017,2.1041,2.1174,2.1218,2.1228,2.1374,2.1699,2.1899,2.1513,2.1886,2.2293,2.2324,2.2795,2.3194,2.3194,2.2271,2.1518,2.1518,2.2482,2.3205,2.3199,2.3198,2.3218,2.3255,2.3227,2.3198,2.3203,0.8938,0.0,0.0,0.0,0.0,0.0,0.0,0.0,0.0,0.0,0.0,0.0,0.0,0.0,0.0,0.0,0.0,1.2894,0.0,1.3518,1.321,1.3102,1.3047,0.0,1.2783,1.2715,1.2535,0.0,1.2586,1.2836,1.2752,1.3125,1.4597,1.5696,1.6294,1.6105,1.7392,0.0,2.1777,0.0,0.0,0.0,0.0,0.0,0.0,0.0,0.0,0.0,0.0,0.0,2.4606,2.4216,2.3904,2.3705,2.3289,2.2991,2.2795,2.2462,2.2309,2.2309,0.0,0.0,0.0,0.0,0.0,0.0,2.1859,2.1706,2.1483,2.1584,2.1692,2.1787,2.1869,2.195,2.2072,2.2241,2.215,2.1923,2.1794,2.1581,2.1385,2.1358,2.1307,2.1228,2.1177,2.1066,2.1055,2.128,2.1283,2.1228,2.1374,2.1665,2.1903,2.1787,2.1936,2.2159,2.2464,2.2891,2.3205,2.3205,2.2968,2.2785,2.2785,2.3014,2.3202,2.3195,2.3196,2.3372,2.3828,2.3474,2.3198,2.3194,0.8935,0.0,0.0,0.0,0.0,0.0,0.0,0.0,0.0,0.0,0.0,0.0,0.0,0.0,0.0,0.0,0.0,1.1839,1.2291,1.2651,1.2427,1.2558,1.2718,1.2646,1.2617,1.2593,0.0,0.0,1.2576,1.2816,1.2901,0.0,0.0,1.5494,0.0,0.0,0.0,1.9898,2.2574,2.328,0.0,0.0,0.0,0.0,0.0,0.0,0.0,0.0,0.0,0.0,0.0,2.4333,2.4034,2.3705,2.3357,2.3058,2.2795,2.2462,2.2309,2.2309,0.0,0.0,0.0,0.0,0.0,2.2215,2.2113,2.2028,2.195,2.1964,2.2018,2.2082,2.2082,2.2123,2.2201,2.2268,2.2106,2.1886,2.1736,2.157,2.1401,2.1401,2.1361,2.128,2.128,2.1242,2.1212,2.1358,2.1459,2.1499,2.1429,2.1865,2.2212,2.1886,2.2203,2.2534,2.2479,2.2858,2.3198,2.3197,2.3205,2.311,2.2835,2.2786,2.2797,2.2791,2.3028,2.3429,2.4032,2.381,2.351,2.3207,1.5485,0.7602,0.0454,0.0,0.0,0.0,0.0,0.0,0.0,0.0,0.0,0.0,0.0,0.0,0.0,0.0,0.0,1.1699,1.2231,1.2746,1.2601,1.2766,1.2945,1.2904,1.269,0.0,0.0,0.0,0.0,0.0,0.0,0.0,0.0,0.0,0.0,1.9427,1.9805,2.07,2.2991,0.0,0.0,0.0,0.0,0.0,0.0,0.0,0.0,0.0,0.0,0.0,0.0,2.4373,2.4048,2.3623,2.3334,2.3063,2.2836,2.2458,2.2309,2.2309,2.2309,0.0,0.0,0.0,0.0,2.2586,2.2425,2.2425,2.2541,2.2381,2.2309,2.2309,2.2282,2.2255,2.2241,2.2214,2.2072,2.1886,2.1736,2.157,2.1401,2.1401,2.1401,2.1401,2.1401,2.1401,2.1412,2.1456,2.1692,2.1845,2.1605,2.2164,2.2609,2.1971,2.252,2.2991,2.2475,2.2814,2.3175,2.3155,2.3175,2.3023,2.2515,2.2363,2.2322,2.2429,2.2959,2.3519,2.4054,2.4024,2.376,2.3244,2.3203,1.7587,0.4379,0.1308,0.0,0.0,0.0,0.0,0.0,0.0,0.0,0.0,0.0,0.0,0.0,0.0,0.0,1.2088,1.264,1.2925,1.2137,1.2353,1.2688,1.2463,0.0,0.0,0.0,0.0,0.0,0.0,1.374,0.0,0.0,0.0,0.0,0.0,0.0,2.2512,0.0,0.0,0.0,0.0,0.0,0.0,0.0,0.0,0.0,0.0,0.0,0.0,0.0,0.0,2.3736,2.3275,2.3113,2.3004,2.2963,2.2512,2.2309,2.2309,2.2309,2.2394,0.0,0.0,0.0,2.2599,2.2568,2.2466,2.2336,2.2309,2.2309,2.2282,2.216,2.2059,2.1954,2.1831,2.1845,2.1886,2.1736,2.157,2.1401,2.1401,2.1401,2.1401,2.1401,2.1401,2.1472,2.1763,2.1859,2.1937,2.2106,2.2398,2.2599,2.2487,2.2677,2.2836,2.2741,2.2886,2.3013,2.2956,2.3082,2.3171,2.3072,2.2625,2.248,2.3002,2.3579,2.3995,2.4093,2.364,2.3298,2.3216,2.3197,2.2185,1.9792,0.7279,0.0,0.0,0.0,0.0,0.0,0.0,0.0,0.0,0.0,0.0,0.0,0.0,0.0,1.1861,1.2427,1.2956,1.3024,1.3254,1.3403,1.3152,0.0,0.0,0.0,0.0,0.0,0.0,0.0,0.0,0.0,0.0,0.0,0.0,0.0,0.0,0.0,0.0,0.0,0.0,0.0,0.0,0.0,0.0,0.0,0.0,0.0,0.0,0.0,0.0,2.3754,2.347,2.3153,2.2869,2.2625,2.2386,2.2309,2.2309,2.2309,2.2411,0.0,0.0,2.2677,2.2795,2.2663,2.2592,2.2557,2.2377,2.2309,2.2292,2.2228,2.2164,2.2096,2.195,2.1913,2.1886,2.1736,2.157,2.1426,2.1621,2.1554,2.1483,2.1794,2.1659,2.1456,2.1723,2.1899,2.2004,2.1991,2.2361,2.2623,2.2283,2.2592,2.2832,2.2588,2.2787,2.294,2.2767,2.2813,2.2942,2.316,2.2698,2.2406,2.2669,2.2961,2.3249,2.3581,2.3381,2.3068,2.275,2.3013,2.3193,2.3203,0.8604,0.0,0.0,0.0,0.0,0.0,0.0,0.0,0.0,0.0,0.0,0.0,0.0,0.0,1.173,1.2218,1.2936,1.3903,0.0,0.0,0.0,0.0,0.0,0.0,0.0,0.0,0.0,1.5738,0.0,0.0,0.0,0.0,0.0,0.0,0.0,0.0,0.0,0.0,0.0,0.0,0.0,0.0,0.0,0.0,0.0,0.0,0.0,0.0,0.0,0.0,2.3632,2.3185,2.276,2.2435,2.2336,2.2309,2.2309,2.2353,2.2466,2.2636,2.2677,2.2822,2.2977,2.2782,2.2745,2.2764,2.2475,2.2326,2.2255,2.2255,2.2268,2.2282,2.215,2.2072,2.2035,2.1882,2.172,2.1621,2.1869,2.172,2.1564,2.2025,2.1794,2.1483,2.1818,2.2018,2.2109,2.1994,2.2378,2.2619,2.2171,2.2466,2.2733,2.2377,2.2625,2.2836,2.2565,2.2568,2.2692,2.2948,2.2611,2.2293,2.2301,2.2311,2.2479,2.2935,2.3002,2.2802,2.2342,2.2987,2.341,2.3413,1.2095,0.3803,0.0143,0.0,0.0,0.0,0.0,0.0,0.0,0.0,0.0,0.0,0.0,0.0,1.2128,1.2471,1.2963,1.4027,0.0,0.0,0.0,0.0,0.0,0.0,0.0,0.0,0.0,0.0,0.0,0.0,0.0,0.0,0.0,0.0,0.0,0.0,0.0,0.0,0.0,0.0,0.0,0.0,0.0,0.0,0.0,0.0,0.0,0.0,0.0,0.0,2.3415,2.3022,2.2795,2.2768,2.2448,2.2309,2.2309,2.2479,2.2663,2.2778,2.2927,2.2977,2.2991,2.2977,2.29,2.2782,2.2636,2.2388,2.2109,2.2109,2.2187,2.2282,2.215,2.2307,2.2514,2.2326,2.2164,2.2059,2.2082,2.1882,2.1682,2.1723,2.1584,2.1581,2.2337,2.2411,2.2363,2.266,2.2677,2.2599,2.2555,2.2452,2.2336,2.2309,2.2479,2.2551,2.2353,2.2483,2.2542,2.2398,2.234,2.2297,2.2298,2.2301,2.2312,2.2347,2.2347,2.2348,2.2293,2.3378,2.4036,2.4036,2.2462,1.5054,0.0593,0.0,0.0,0.0,0.0,0.0,0.0,0.0,0.0,0.0,0.0,0.0,1.1821,1.2272,1.3044,1.45,0.0,0.0,0.0,0.0,0.0,0.0,0.0,0.0,0.0,0.0,0.0,0.0,0.0,0.0,0.0,0.0,0.0,0.0,0.0,0.0,0.0,0.0,0.0,0.0,0.0,0.0,0.0,0.0,0.0,0.0,0.0,0.0,0.0,2.3167,2.2972,2.2795,2.2462,2.2309,2.2309,2.2514,2.2714,2.2927,2.2977,2.3045,2.3113,2.3031,2.2981,2.29,2.2786,2.2663,2.2534,2.2534,2.2574,2.2601,2.2547,2.2551,2.2568,2.2381,2.2218,2.2109,2.2204,2.2045,2.1899,2.2283,2.2062,2.1774,2.2093,2.2116,2.2096,2.2299,2.2483,2.2541,2.2316,2.2466,2.2547,2.2336,2.2469,2.2541,2.2323,2.2356,2.2396,2.2305,2.2298,2.2298,2.2309,2.2298,2.2304,2.2304,2.2304,2.2448,2.283,2.3607,2.41,2.4108,2.3888,2.0949,1.4679,0.5141,0.0,0.0,0.0,0.0,0.0,0.0,0.0,0.0,0.0,0.0,1.1762,1.2187,1.3003,0.0,0.0,0.0,0.0,0.0,0.0,0.0,0.0,0.0,0.0,0.0,0.0,0.0,0.0,0.0,0.0,0.0,0.0,0.0,0.0,0.0,0.0,0.0,0.0,0.0,0.0,0.0,0.0,0.0,0.0,0.0,0.0,0.0,0.0,2.318,2.2954,2.2727,2.2493,2.2394,2.2394,2.2582,2.2782,2.2991,2.3045,2.3113,2.3189,2.3099,2.3049,2.2995,2.285,2.2768,2.2745,2.2745,2.2768,2.2795,2.2795,2.2795,2.2768,2.2584,2.2435,2.2344,2.2435,2.2235,2.2062,2.2469,2.2212,2.1862,2.1937,2.195,2.2008,2.2123,2.2344,2.2442,2.2218,2.2425,2.257,2.2336,2.2411,2.2469,2.2323,2.2309,2.2309,2.2309,2.2309,2.2309,2.2309,2.2309,2.2309,2.2309,2.246,2.2753,2.3167,2.3753,2.4102,2.4099,2.4101,2.3924,2.3496,1.326,0.521,0.0107,0.0,0.0,0.0,0.0,0.0,0.0,0.0,0.0,1.2098,1.2296,1.2807,0.0,0.0,0.0,0.0,0.0,0.0,0.0,0.0,0.0,0.0,0.0,0.0,0.0,0.0,0.0,0.0,0.0,0.0,0.0,0.0,0.0,0.0,0.0,0.0,0.0,0.0,0.0,0.0,0.0,0.0,0.0,0.0,0.0,0.0,2.2991,2.2727,2.2599,2.2599,2.2599,2.2599,2.2745,2.289,2.3004,2.3135,2.3207,2.3207,2.3207,2.3113,2.2995,2.2846,2.2714,2.2599,2.2613,2.2691,2.2795,2.2795,2.2981,2.318,2.3045,2.29,2.2795,2.2795,2.2466,2.2096,2.2096,2.1913,2.1763,2.2028,2.2096,2.2123,2.2268,2.2309,2.2309,2.2309,2.2309,2.2309,2.2309,2.2309,2.2309,2.2309,2.2309,2.2309,2.2309,2.2309,2.2309,2.2309,2.2309,2.2309,2.2309,2.2842,2.3197,2.3198,2.3747,2.4103,2.4107,2.4102,2.4087,2.4094,2.4101,1.6566,0.0535,0.0071,0.0,0.0,0.0,0.0,0.0,0.0,0.0,1.1843,1.2489,0.0,1.4663,0.0,0.0,0.0,0.0,0.0,0.0,0.0,0.0,0.0,0.0,0.0,0.0,0.0,0.0,0.0,0.0,0.0,0.0,0.0,0.0,0.0,0.0,0.0,0.0,0.0,0.0,0.0,0.0,0.0,0.0,0.0,0.0,0.0,0.0,2.2782,2.2745,2.2745,2.2691,2.2609,2.2836,2.3004,2.3135,2.318,2.3207,2.3207,2.3207,2.3113,2.3008,2.3063,2.2991,2.2886,2.2995,2.3049,2.3085,2.3085,2.314,2.318,2.3045,2.29,2.2782,2.2691,2.2388,2.2109,2.2218,2.2059,2.1899,2.216,2.216,2.2123,2.2268,2.2309,2.2309,2.2309,2.2309,2.2309,2.2309,2.2309,2.2309,2.2309,2.2309,2.2309,2.2309,2.2309,2.2309,2.2309,2.2309,2.239,2.2628,2.2807,2.3084,2.3528,2.3632,2.3809,2.4089,2.4102,2.4099,2.4087,2.4098,2.1852,1.7045,0.5787,0.0,0.0,0.0,0.0,0.0,0.0,0.0,1.2827,1.3654,0.0,1.5805,1.7215,1.8791,0.0,0.0,0.0,0.0,0.0,0.0,0.0,0.0,0.0,0.0,0.0,0.0,0.0,0.0,0.0,0.0,0.0,0.0,0.0,0.0,0.0,0.0,0.0,0.0,0.0,0.0,0.0,0.0,0.0,0.0,0.0,0.0,0.0,2.289,2.2836,2.2782,2.2768,2.2927,2.3058,2.3207,2.3207,2.3207,2.3207,2.3207,2.3153,2.3085,2.3113,2.3058,2.3004,2.3103,2.3153,2.3207,2.3207,2.3289,2.3361,2.3153,2.2995,2.2846,2.2714,2.2442,2.2204,2.2282,2.215,2.2018,2.2241,2.2201,2.2123,2.2268,2.2255,2.2241,2.2282,2.2309,2.2323,2.2394,2.2425,2.2425,2.2425,2.2353,2.2309,2.2309,2.2309,2.2353,2.2475,2.2503,2.2628,2.2927,2.308,2.3257,2.3483,2.3496,2.3672,2.4071,2.4103,2.4098,2.4093,2.4096,2.4108,2.4106,0.8226,0.0,0.0,0.0,0.0,0.0,0.0,0.0,1.4428,1.5289,0.0,1.7229,1.8369,0.0,2.1652,0.0,0.0,0.0,0.0,0.0,0.0,0.0,0.0,0.0,0.0,0.0,0.0,0.0,0.0,0.0,0.0,0.0,0.0,0.0,0.0,0.0,0.0,0.0,0.0,0.0,0.0,0.0,0.0,0.0,0.0,0.0,0.0,0.0,2.2873,2.289,2.2977,2.3008,2.3085,2.3207,2.318,2.318,2.3207,2.3207,2.3189,2.3167,2.3058,2.3004,2.2991,2.3031,2.3113,2.3221,2.3235,2.3456,2.3651,2.3329,2.314,2.2995,2.2846,2.2588,2.2309,2.2323,2.2218,2.2123,2.2268,2.2218,2.215,2.2268,2.2204,2.215,2.2282,2.2305,2.2363,2.2586,2.2609,2.2599,2.2599,2.2425,2.2305,2.2336,2.2353,2.2462,2.2778,2.2836,2.294,2.3221,2.3483,2.3537,2.3275,2.3388,2.3642,2.4005,2.4028,2.4024,2.4016,2.4024,2.4021,2.4011,0.9605,0.1422,0.0,0.0,0.0,0.0,0.0,0.0,1.3819,1.5276,0.0,1.788,1.963,2.1261,2.1815,2.2018,0.0,0.0,0.0,0.0,0.0,0.0,0.0,0.0,0.0,0.0,0.0,0.0,0.0,0.0,0.0,0.0,0.0,0.0,0.0,0.0,0.0,0.0,0.0,0.0,0.0,0.0,0.0,2.29,2.3049,2.2741,2.2677,0.0,2.2927,2.2927,2.285,2.3063,2.3167,2.3189,2.3103,2.3099,2.3207,2.3207,2.314,2.3045,2.314,2.3099,2.3031,2.3244,2.332,2.3379,2.3537,2.3651,2.3664,2.3433,2.3275,2.314,2.2991,2.2652,2.2323,2.2479,2.2316,2.2123,2.2268,2.2282,2.2251,2.2292,2.2204,2.2181,2.2469,2.2411,2.2394,2.27,2.2677,2.2599,2.2599,2.2425,2.2394,2.2656,2.2696,2.2805,2.3076,2.3113,2.3239,2.3551,2.3411,2.3384,2.3578,2.3392,2.3374,2.3614,2.3473,2.3376,2.3398,2.3389,2.3403,2.3392,1.9971,1.2203,0.0,0.0,0.0,0.0,0.0,0.0,1.4516,1.5967,1.7622,1.9018,0.0,2.1597,2.178,2.1913,2.2113,0.0,0.0,0.0,0.0,0.0,0.0,0.0,0.0,0.0,0.0,0.0,0.0,0.0,0.0,0.0,0.0,0.0,0.0,0.0,0.0,0.0,0.0,0.0,0.0,0.0,2.2723,2.2669,2.29,2.2601,2.2601,2.2904,2.2981,2.2963,2.29,2.3049,2.3099,2.3099,2.3099,2.314,2.3207,2.3207,2.3167,2.3099,2.3167,2.3153,2.3113,2.3325,2.346,2.356,2.3664,2.3727,2.3754,2.3487,2.3311,2.3167,2.2954,2.2696,2.2452,2.2452,2.2326,2.2218,2.2282,2.2309,2.2309,2.2309,2.2204,2.2177,2.2531,2.2524,2.2534,2.2832,2.2782,2.2691,2.2691,2.2551,2.2493,2.2677,2.2822,2.2995,2.3257,2.3298,2.3397,2.366,2.3537,2.342,2.3316,2.3248,2.3122,2.2953,2.2845,2.29,2.3189,2.3211,2.3211,2.3193,2.3193,1.5548,0.0,0.0,0.0,0.0,0.0,0.0,1.5299,1.6768,1.8299,2.0033,2.0898,0.0,2.157,2.1723,2.1842,2.1947,0.0,0.0,0.0,0.0,0.0,0.0,0.0,0.0,0.0,0.0,0.0,0.0,0.0,0.0,0.0,0.0,0.0,0.0,0.0,0.0,0.0,0.0,2.3045,2.2813,2.252,2.2462,2.271,2.2462,2.2557,2.2923,2.2954,2.2954,2.2927,2.29,2.29,2.294,2.3099,2.3153,2.314,2.318,2.3207,2.3207,2.3167,2.318,2.3203,2.3325,2.3492,2.3646,2.3678,2.3773,2.3809,2.3501,2.3311,2.3153,2.29,2.2714,2.2568,2.2394,2.2323,2.2309,2.2309,2.2309,2.2309,2.2309,2.2218,2.2221,2.2541,2.264,2.2731,2.2927,2.2846,2.2741,2.2727,2.2619,2.2586,2.2663,2.2846,2.3099,2.3379,2.3433,2.3506,2.3651,2.3623,2.346,2.3077,2.3144,2.2965,2.2426,2.2438,2.2737,2.3338,2.3262,2.1939,1.9242,1.9198,1.2851,0.0,0.0,0.0,0.0,0.0,0.0,1.4561,1.689,1.9208,2.0101,2.0684,2.1082,0.0,0.0,2.1483,0.0,0.0,0.0,0.0,0.0,0.0,0.0,0.0,0.0,0.0,0.0,0.0,0.0,0.0,0.0,0.0,0.0,0.0,0.0,0.0,0.0,0.0,2.3049,2.2954,2.2795,2.2646,2.2497,2.2381,2.2497,2.2582,2.2663,2.2768,2.2768,2.2636,2.2462,2.2475,2.2681,2.2927,2.2954,2.2877,2.3099,2.3207,2.318,2.3058,2.3099,2.3207,2.3221,2.3329,2.346,2.3651,2.3719,2.3687,2.346,2.3311,2.3167,2.3022,2.2795,2.2582,2.2568,2.2425,2.2309,2.2309,2.2309,2.2309,2.2309,2.2282,2.2323,2.2555,2.2782,2.2927,2.2832,2.2714,2.2565,2.239,2.2353,2.2475,2.2886,2.2977,2.3099,2.3379,2.356,2.3623,2.3538,2.3361,2.337,2.358,2.3349,2.3068,2.2745,2.2951,2.3359,2.3954,2.3486,1.6857,0.3354,0.31,0.2069,0.0,0.0,0.0,0.0,0.0,0.0,1.464,1.6754,1.8668,1.9481,2.0053,2.0458,2.0738,2.0998,2.1201,2.1266,0.0,0.0,0.0,0.0,0.0,0.0,0.0,0.0,0.0,0.0,0.0,0.0,0.0,0.0,0.0,0.0,0.0,0.0,0.0,0.0,2.2904,2.2822,2.2696,2.2534,2.2398,0.0,2.2187,2.2357,2.2479,2.2599,2.2551,2.2475,2.2425,2.2336,2.2353,2.2452,2.2768,2.2751,2.253,2.2846,2.2873,2.2688,2.2751,2.2822,2.289,2.3031,2.314,2.3203,2.3451,2.3492,2.3411,2.3402,2.3257,2.3058,2.2927,2.2741,2.2586,2.2466,2.2381,2.2309,2.2309,2.2309,2.2309,2.2309,2.2448,2.2547,2.2448,2.2601,2.2759,2.2691,2.2636,2.2541,2.2323,2.2394,2.2547,2.285,2.3022,2.3198,2.3433,2.3528,2.3592,2.36,2.3374,2.3118,2.2925,2.3099,2.3149,2.3027,2.3126,2.3167,2.309,2.3163,1.997,1.3126,0.4441,0.0,0.0,0.0,0.0,0.0,0.0,0.0,1.4421,1.6049,1.7473,1.8301,1.902,1.9644,2.0074,0.0,2.0917,0.0,0.0,0.0,0.0,0.0,0.0,0.0,0.0,0.0,0.0,0.0,0.0,0.0,0.0,0.0,0.0,0.0,0.0,0.0,0.0,0.0,2.2628,2.2483,2.2374,2.2255,2.2042,2.195,2.2004,2.2096,2.2235,2.2405,2.2299,2.2228,2.2204,2.2164,2.2106,2.2092,2.2493,2.2475,2.2214,2.253,2.2547,2.2398,2.2483,2.2582,2.2677,2.2836,2.2927,2.2981,2.318,2.318,2.3113,2.3221,2.3103,2.2886,2.2822,2.2677,2.2497,2.2394,2.2336,2.2309,2.2309,2.2309,2.2309,2.2309,2.2557,2.2723,2.2475,2.2479,2.2555,2.2623,2.2636,2.2609,2.2448,2.2592,2.2718,2.2745,2.2963,2.3167,2.3262,2.3361,2.3406,2.3359,2.326,2.3023,2.2584,2.2943,2.3203,2.3194,2.3199,2.3005,2.2552,2.296,2.3199,2.3203,1.1801,0.3954,0.0,0.0,0.0,0.0,0.0,0.0,1.3352,1.4502,1.5711,1.6444,1.7609,1.8692,1.9169,1.9927,2.0575,2.0786,0.0,0.0,0.0,0.0,0.0,0.0,0.0,0.0,0.0,0.0,0.0,0.0,0.0,0.0,0.0,0.0,0.0,0.0,0.0,0.0,2.214,2.2004,2.1991,2.2113,2.1672,2.1527,2.1726,2.1723,2.1791,2.194,2.2059,2.2045,2.1913,2.1794,2.1641,2.148,2.2079,2.2164,2.1937,2.2218,2.2425,2.2568,2.2398,2.252,2.2786,2.2663,2.27,2.2822,2.2836,2.2836,2.2822,2.2836,2.2745,2.2636,2.2768,2.257,2.2353,2.2541,2.2452,2.2309,2.2309,2.2309,2.2309,2.2309,2.2557,2.2795,2.2782,2.253,2.2408,2.2727,2.2782,2.2782,2.2782,2.2886,2.2904,2.2636,2.2783,2.2843,2.2673,2.2976,2.2999,2.2434,2.2875,2.3191,2.3164,2.3178,2.3197,2.3207,2.3193,2.3197,2.3154,2.3175,2.3197,2.3207,2.2402,1.4744,0.0,0.0,0.0,0.0,0.0,0.0,1.3044,1.3903,1.4871,1.5616,1.6498,1.746,1.8409,1.9221,1.9952,2.0512,0.0,0.0,0.0,0.0,0.0,0.0,0.0,0.0,0.0,0.0,0.0,0.0,0.0,0.0,0.0,0.0,0.0,0.0,0.0,0.0,2.1994,2.1845,2.1791,2.1845,2.155,2.1499,2.1699,2.157,2.1597,2.178,2.1689,2.1635,2.1564,2.1435,2.1337,2.1283,2.1405,2.1459,2.1475,2.1882,2.1947,2.1842,2.1991,2.2059,2.2106,2.2239,2.2303,2.2357,2.2357,2.2551,2.2795,2.2795,2.2768,2.2745,2.2782,2.2574,2.2323,2.2398,2.2353,2.2309,2.2309,2.2462,2.2652,2.2837,2.2832,2.285,2.3022,2.2652,2.2444,2.2963,2.285,2.2731,2.2904,2.2904,2.2741,2.2347,2.2644,2.2922,2.2983,2.3105,2.2968,2.2371,2.2488,2.2626,2.2616,2.2983,2.3207,2.3207,2.3207,2.3207,2.3207,2.3207,2.3207,2.3207,2.3194,1.5548,0.0,0.0,0.0,0.0,0.0,0.0,1.2459,1.3061,1.3824,1.4667,1.5347,1.624,1.7812,1.8586,1.9248,2.0223,2.0537,0.0,0.0,0.0,0.0,0.0,0.0,0.0,0.0,0.0,0.0,0.0,0.0,0.0,0.0,0.0,0.0,0.0,0.0,0.0,2.1964,2.1845,2.1668,2.1478,2.1337,2.134,2.1465,2.1337,2.135,2.1533,2.1408,2.1307,2.1269,2.1174,2.112,2.112,2.1082,2.1123,2.1215,2.1546,2.1597,2.1513,2.1763,2.1831,2.1859,2.2028,2.2123,2.2164,2.2164,2.2371,2.2625,2.2625,2.2673,2.2745,2.2782,2.2669,2.2539,2.2593,2.2539,2.2485,2.2584,2.276,2.2981,2.3153,2.3063,2.3049,2.3411,2.2991,2.2675,2.3162,2.2981,2.2813,2.3031,2.2995,2.2805,2.2398,2.2487,2.2706,2.3035,2.3146,2.2978,2.2366,2.2474,2.2608,2.2598,2.2965,2.3207,2.3207,2.3207,2.3207,2.3207,2.3207,2.3207,2.3207,2.3199,1.8106,0.7787,0.7796,0.7787,0.7787,0.7787,0.7787,0.0,0.0,0.0,0.0,1.4114,1.5045,1.7283,1.7922,1.845,1.994,2.0266,0.0,0.0,0.0,0.0,0.0,0.0,0.0,0.0,0.0,0.0,0.0,0.0,0.0,0.0,0.0,0.0,0.0,0.0,2.2231,2.2096,2.195,2.1601,2.1014,2.1001,2.1001,2.1017,2.1017,2.1068,2.1218,2.1201,2.1123,2.1001,2.0987,2.0987,2.1001,2.112,2.119,2.1201,2.1201,2.141,2.1682,2.1699,2.1859,2.2082,2.2099,2.216,2.2282,2.2282,2.2282,2.2309,2.2309,2.2425,2.2623,2.2768,2.2886,2.3022,2.3167,2.3008,2.2873,2.314,2.3207,2.3189,2.3221,2.3221,2.3384,2.3967,2.3519,2.3099,2.3361,2.3189,2.3045,2.318,2.3207,2.3117,2.2836,2.2337,2.2169,2.2692,2.3013,2.2977,2.239,2.2851,2.3195,2.32,2.32,2.3197,2.3207,2.3207,2.3207,2.3207,2.3207,2.3207,2.3207,2.3207,2.3207,2.3207,2.3203,2.3189,2.3189,2.3189,2.3189,1.1418,0.0,0.0,0.0,0.0,0.0,0.0,1.598,1.6957,1.8531,1.9208,1.971,0.0,0.0,0.0,0.0,0.0,0.0,0.0,0.0,0.0,0.0,0.0,0.0,0.0,0.0,0.0,0.0,2.2072,2.195,2.1818,2.1465,2.1123,2.0854,2.0946,2.1055,2.1147,2.1147,2.1215,2.1334,2.1055,2.0949,2.0984,2.0754,2.0713,2.0854,2.0895,2.0962,2.1068,2.1269,2.1405,2.1499,2.1638,2.1652,2.1621,2.176,2.1899,2.1994,2.1727,2.2028,2.2483,2.2231,2.2361,2.2636,2.2873,2.29,2.29,2.314,2.3153,2.3153,2.3488,2.3243,2.3063,2.3695,2.3695,2.3632,2.389,2.3714,2.3551,2.3727,2.3429,2.318,2.3325,2.3257,2.3031,2.2516,2.2189,2.1954,2.181,2.2612,2.3147,2.2965,2.3107,2.32,2.3211,2.3207,2.3203,2.3207,2.3207,2.3207,2.3207,2.3207,2.3207,2.3207,2.3207,2.3207,2.3207,2.3199,2.3194,2.3194,2.3194,2.3203,0.0,0.0,0.0,0.0,0.0,0.0,1.4529,1.5301,1.6183,0.0,1.8571,1.9114,2.0062,2.0187,0.0,0.0,0.0,0.0,0.0,0.0,0.0,0.0,0.0,0.0,0.0,0.0,0.0,0.0,2.2059,2.1923,2.1794,2.1478,2.1218,2.1055,2.1068,2.1093,2.1123,2.1123,2.1174,2.1307,2.0962,2.0895,2.1068,2.077,2.0756,2.0962,2.0962,2.1041,2.1174,2.1334,2.1401,2.1412,2.1527,2.1581,2.1621,2.1685,2.1818,2.195,2.1706,2.195,2.2361,2.2167,2.2357,2.27,2.2795,2.2999,2.3185,2.3257,2.342,2.356,2.351,2.3379,2.3347,2.3718,2.3754,2.3719,2.38,2.3759,2.3678,2.3632,2.3347,2.3135,2.3217,2.3167,2.3031,2.2733,2.2587,2.2293,2.1717,2.2562,2.3204,2.3207,2.3211,2.3202,2.3207,2.3207,2.3207,2.3207,2.3207,2.3207,2.3207,2.3207,2.3207,2.3207,2.3207,2.3203,2.3198,2.3203,2.3203,2.3198,2.3203,2.3198,0.0,0.0,0.0,0.0,0.0,0.0,1.4624,1.5115,1.5698,0.0,1.7934,1.8287,1.932,1.9238,1.925,0.0,0.0,0.0,0.0,0.0,0.0,0.0,0.0,0.0,0.0,2.2099,2.215,2.2268,2.215,2.2018,2.1886,2.1723,2.157,2.1401,2.1283,2.1177,2.1085,2.1085,2.1123,2.1201,2.0962,2.0962,2.1177,2.0935,2.0962,2.1201,2.1201,2.1269,2.1371,2.1385,2.1401,2.1401,2.1401,2.1581,2.1831,2.174,2.1845,2.2045,2.1913,2.1994,2.2096,2.2082,2.2371,2.2727,2.2677,2.3121,2.3623,2.3501,2.3731,2.3912,2.3411,2.356,2.3763,2.3501,2.3573,2.3719,2.366,2.366,2.3569,2.3221,2.3099,2.3049,2.3022,2.3022,2.3058,2.318,2.3135,2.2875,2.2229,2.2674,2.309,2.3189,2.3207,2.3203,2.3194,2.3194,2.3203,2.3194,2.3199,2.3203,2.3203,2.3194,2.3194,2.3203,2.3199,2.3207,2.32,2.3189,2.3234,2.3305,2.3364,2.3332,0.0,0.0,0.0,0.0,0.0,0.0,0.0,1.3363,1.4068,0.0,1.563,1.6213,1.7012,1.7487,1.7758,1.7826,0.0,0.0,0.0,0.0,0.0,0.0,0.0,0.0,0.0,2.2045,2.2109,2.214,2.2004,2.1886,2.1753,2.1462,2.1337,2.1401,2.1374,2.1418,2.156,2.156,2.1438,2.1201,2.1147,2.1082,2.1041,2.0987,2.1055,2.1201,2.1201,2.1215,2.1242,2.1361,2.1401,2.1401,2.1401,2.1442,2.151,2.1655,2.1723,2.1777,2.1753,2.1899,2.2082,2.1964,2.214,2.2485,2.2936,2.3185,2.3402,2.3845,2.3763,2.3569,2.3709,2.3628,2.3515,2.3632,2.3754,2.3782,2.3519,2.346,2.3343,2.2954,2.3113,2.3284,2.318,2.3167,2.3167,2.3207,2.2801,2.2591,2.2907,2.2544,2.2472,2.3135,2.3207,2.3194,2.32,2.3195,2.321,2.3201,2.3201,2.3203,2.3203,2.3194,2.3194,2.3208,2.3204,2.3198,2.3195,2.319,2.3454,2.3933,2.4426,2.4131,0.0,0.0,0.0,1.2258,0.0,0.0,0.0,1.3034,1.3607,1.4342,1.4692,1.5153,1.6117,1.6239,1.6401,1.6998,1.803,0.0,0.0,0.0,0.0,0.0,0.0,0.0,0.0,2.1923,2.2004,2.2004,2.1886,2.1723,2.157,2.1492,2.1418,2.1401,2.1499,2.1516,2.1465,2.1516,2.1516,2.1465,2.1285,2.1283,2.1438,2.1136,2.1106,2.1296,2.1228,2.1245,2.1307,2.1374,2.1401,2.1401,2.1401,2.1456,2.1543,2.1554,2.1614,2.1685,2.1584,2.1706,2.1899,2.1899,2.214,2.2479,2.2692,2.2905,2.3221,2.3836,2.3782,2.3592,2.3754,2.3614,2.3433,2.3519,2.3551,2.3506,2.3343,2.3311,2.3217,2.2954,2.3113,2.3235,2.3049,2.3117,2.3207,2.3207,2.2932,2.2869,2.3167,2.284,2.2746,2.3148,2.32,2.32,2.3212,2.3761,2.4101,2.4107,2.4109,2.3962,2.3651,2.3653,2.3788,2.4091,2.4099,2.4095,2.4099,2.4109,2.4109,2.4099,2.4717,2.469,0.0,0.0,0.0,0.0,0.0,1.2523,0.0,0.0,0.0,1.3962,1.4014,1.4258,1.526,0.0,0.0,0.0,0.0,0.0,0.0,0.0,0.0,0.0,0.0,0.0,0.0,2.1584,2.1709,2.1886,2.1641,2.1478,2.1459,2.1584,2.1597,2.1496,2.1652,2.1614,2.134,2.1445,2.1527,2.1601,2.1353,2.1421,2.1763,2.1285,2.1201,2.1385,2.128,2.1296,2.1401,2.1401,2.1401,2.1401,2.1401,2.1499,2.1641,2.1499,2.1543,2.1611,2.1499,2.1584,2.1753,2.1859,2.2229,2.2609,2.2448,2.2733,2.3167,2.3646,2.3687,2.3592,2.3592,2.3492,2.3366,2.3366,2.3298,2.3235,2.3207,2.318,2.3113,2.2995,2.3045,2.3063,2.2873,2.3049,2.3207,2.3207,2.3207,2.3207,2.3207,2.3193,2.3258,2.3417,2.3396,2.3415,2.3539,2.444,2.5006,2.5001,2.4997,2.4781,2.428,2.4262,2.45,2.5002,2.4992,2.5004,2.5007,2.4997,2.4745,2.4293,2.4774,2.4941,0.0,0.0,0.0,0.0,1.3197,0.0,0.0,0.0,1.2733,1.2576,0.0,0.0,0.0,0.0,0.0,0.0,0.0,0.0,1.5573,1.6644,0.0,0.0,0.0,0.0,0.0,0.0,2.0998,2.1845,2.1123,2.0946,2.1641,2.1513,2.1567,2.1828,2.1859,2.1859,2.1815,2.1845,2.1655,2.1258,2.1334,2.1334,2.1285,2.1337,2.1374,2.1401,2.1371,2.1388,2.1401,2.1401,2.1401,2.1401,2.1401,2.1412,2.1442,2.1614,2.157,2.1459,2.1614,2.1763,2.1886,2.1899,2.231,2.2768,2.2741,2.3031,2.3338,2.3289,2.3275,2.3262,2.3262,2.3235,2.3221,2.3221,2.3311,2.3338,2.3235,2.3117,2.2977,2.285,2.2836,2.2873,2.2963,2.3099,2.3207,2.3207,2.3207,2.3207,2.3207,2.3199,2.3479,2.419,2.4094,2.4217,2.4752,2.4926,2.5012,2.499,2.501,2.498,2.4903,2.4903,2.4942,2.4999,2.5007,2.4993,2.5014,2.5006,2.4948,2.4904,2.4972,2.4704,0.0,0.0,0.0,0.0,0.0,0.0,0.0,0.0,1.2467,0.0,0.0,0.0,0.0,0.0,0.0,0.0,0.0,0.0,0.0,0.0,1.7066,0.0,0.0,0.0,0.0,0.0,0.0,0.0,0.0,2.0645,2.1261,2.1283,2.1374,2.1594,2.1611,2.1567,2.1489,2.1682,2.1641,2.132,2.128,2.1296,2.1307,2.1215,2.1215,2.1283,2.1283,2.1337,2.1401,2.1401,2.1401,2.1401,2.1401,2.1401,2.1401,2.1499,2.1472,2.1429,2.1641,2.174,2.1818,2.2059,2.2299,2.2557,2.2832,2.2927,2.2954,2.3063,2.3022,2.2972,2.2972,2.2972,2.2972,2.2972,2.3008,2.3049,2.2981,2.2927,2.2832,2.2718,2.2741,2.2822,2.2873,2.2995,2.3113,2.318,2.3207,2.3207,2.3207,2.3194,2.3337,2.366,2.4245,2.4724,2.4973,2.4999,2.4996,2.4997,2.5014,2.5014,2.5005,2.4999,2.4999,2.4999,2.5014,2.5014,2.4997,2.4997,2.4997,2.4997,2.5002,2.4857,1.3987,0.0,0.0,0.0,0.0,0.0,0.0,0.0,0.0,0.0,0.0,0.0,0.0,0.0,0.0,0.0,0.0,0.0,0.0,0.0,0.0,0.0,0.0,0.0,0.0,0.0,0.0,0.0,0.0,0.0,2.0946,2.1055,2.119,2.1385,2.1358,2.1296,2.1201,2.141,2.1421,2.128,2.1201,2.1201,2.128,2.112,2.1109,2.1201,2.1201,2.1283,2.1401,2.1401,2.1401,2.1401,2.1456,2.1442,2.1401,2.1401,2.1456,2.1554,2.1652,2.1753,2.1859,2.2187,2.2309,2.2363,2.2688,2.2741,2.2677,2.2778,2.2805,2.2782,2.2741,2.2745,2.2741,2.2782,2.2795,2.2795,2.2795,2.2768,2.2714,2.2627,2.2677,2.2759,2.2778,2.29,2.3045,2.318,2.3207,2.3207,2.3207,2.3283,2.337,2.3451,2.4181,2.4761,2.4977,2.5002,2.4993,2.499,2.499,2.5008,2.4996,2.5159,2.5259,2.5248,2.5091,2.4996,2.4997,2.4997,2.5008,2.499,2.4999,2.5012,0.0,0.0,0.0,0.0,0.0,0.0,0.0,0.0,1.2921,0.0,0.0,0.0,0.0,0.0,0.0,0.0,0.0,0.0,0.0,0.0,0.0,0.0,0.0,0.0,0.0,0.0,0.0,0.0,0.0,0.0,2.0892,2.0881,2.0987,2.1388,2.1266,2.1201,2.1201,2.1066,2.1014,2.1014,2.1014,2.1014,2.1014,2.1136,2.1201,2.1201,2.1201,2.1283,2.1401,2.1401,2.1401,2.1429,2.1614,2.157,2.1401,2.1401,2.1611,2.1859,2.1736,2.1869,2.2109,2.2255,2.2309,2.2309,2.2323,2.253,2.2727,2.2404,2.2557,2.2768,2.2636,2.2613,2.2636,2.2768,2.2795,2.2795,2.2795,2.2691,2.2613,2.2599,2.2599,2.2636,2.2782,2.29,2.3045,2.318,2.3207,2.3207,2.3207,2.3483,2.3782,2.4048,2.3945,2.4148,2.4931,2.4996,2.4994,2.4995,2.4995,2.4999,2.4997,2.5566,2.586,2.5863,2.5301,2.4996,2.4997,2.4997,2.5002,2.4995,2.4999,2.5012,0.0,0.0,1.5833,1.4575,0.0,0.0,0.0,0.0,0.0,0.0,0.0,0.0,0.0,0.0,0.0,0.0,0.0,0.0,0.0,0.0,0.0,0.0,0.0,0.0,0.0,0.0,0.0,0.0,0.0,0.0,0.0,2.001,2.0406,2.1106,2.1093,2.1106,2.1201,2.1163,2.1174,2.1269,2.1066,2.1001,2.1001,2.1055,2.1068,2.1068,2.1161,2.1283,2.1401,2.1401,2.1472,2.1614,2.1668,2.1709,2.173,2.173,2.1763,2.1794,2.1923,2.2082,2.2241,2.2282,2.2309,2.2309,2.2309,2.2377,2.2448,2.2319,2.2377,2.2462,2.2408,2.2394,2.2408,2.2462,2.2462,2.2462,2.2462,2.2435,2.2394,2.2394,2.2394,2.2466,2.2636,2.2782,2.294,2.3167,2.3207,2.3207,2.3207,2.3289,2.3483,2.3809,2.3931,2.4112,2.4384,2.44,2.4404,2.4411,2.4411,2.4397,2.4387,2.5365,2.5907,2.591,2.57,2.5399,2.4996,2.4614,2.4603,2.4982,2.4589,2.4408,1.7187,1.7106,0.0,0.0,1.5404,0.0,0.0,0.0,0.0,0.0,0.0,0.0,0.0,0.0,0.0,0.0,0.0,0.0,0.0,1.2925,0.0,0.0,0.0,0.0,0.0,0.0,1.5547,1.6375,1.6592,0.0,0.0,0.0,1.9836,2.0528,2.0713,2.0889,2.1055,2.1055,2.1123,2.1269,2.112,2.1055,2.1001,2.1001,2.1041,2.1068,2.1106,2.1228,2.1401,2.1401,2.1513,2.1699,2.1753,2.1818,2.1899,2.1899,2.1886,2.1869,2.2096,2.2231,2.2309,2.2309,2.2309,2.2309,2.2309,2.2353,2.2394,2.2323,2.2353,2.2394,2.2323,2.2309,2.2309,2.2309,2.2309,2.2309,2.2309,2.2309,2.2309,2.2309,2.2353,2.2466,2.2636,2.2782,2.2927,2.3099,2.3167,2.3207,2.3207,2.3343,2.3519,2.3746,2.4085,2.426,2.422,2.4149,2.4091,2.4091,2.4498,2.4739,2.4735,2.5486,2.591,2.591,2.5911,2.5614,2.4993,2.4598,2.4511,2.468,2.45,2.4422]}]]